GEFSSGP_500_meanwind_060.txt.gz
Wind_Speed
8 7 7 7 6 6 6 8 10 11 11 11 10 9 8 7 6 7 8 9 9 9 9 10 10 10 10 10 10 10 9 9 9 8 7 6 5 4 3 2 2 2 3 4 5 6 8 10 11
6 6 6 4 4 4 5 8 9 9 10 10 9 8 8 8 6 7 8 8 8 8 8 8 9 9 9 9 9 9 8 8 8 8 8 7 6 5 4 3 1 1 2 3 5 6 7 9 10
4 4 4 3 2 3 5 6 8 9 9 9 9 8 8 7 6 5 6 7 7 7 7 7 7 7 7 7 7 7 7 7 7 7 7 7 7 6 4 3 2 1 1 2 4 5 7 8 9
3 2 1 1 2 3 5 6 7 8 8 8 8 7 6 6 5 4 4 5 5 5 5 5 5 5 5 5 5 5 6 6 6 6 7 7 7 6 5 4 3 1 1 2 3 5 6 7 8
1 2 3 2 1 2 4 5 6 7 6 6 6 6 6 5 4 3 3 4 4 4 4 3 3 3 3 3 3 3 4 4 4 5 5 6 6 6 5 5 4 3 2 2 3 4 5 6 8
2 3 4 3 1 2 3 4 4 5 4 4 4 4 4 4 3 2 1 2 3 2 2 1 1 0 0 1 1 1 2 3 3 4 4 4 5 5 5 4 4 3 3 3 3 3 4 5 6
4 4 5 3 2 2 2 3 3 3 3 3 4 4 3 2 2 1 0 1 2 2 2 2 2 1 2 2 2 2 3 3 3 4 4 4 4 4 4 4 4 3 3 4 3 3 4 4 5
6 6 5 4 3 4 4 4 4 4 4 5 5 5 4 3 2 1 1 2 2 3 4 4 4 4 4 4 4 4 5 5 5 5 6 6 5 5 5 5 4 4 4 4 4 4 4 3 3
8 8 7 6 7 6 5 7 7 7 7 7 7 7 6 6 4 3 3 4 5 5 6 6 6 6 6 6 6 6 6 7 7 7 7 8 8 7 6 6 6 6 5 5 5 5 4 4 3
9 9 10 9 9 8 7 10 11 11 11 11 11 10 10 9 8 7 6 6 7 8 9 9 9 9 8 8 8 8 8 8 9 9 9 10 10 9 9 9 8 7 7 7 6 6 6 5 4
11 11 11 11 12 12 12 13 14 14 14 14 14 14 13 13 13 12 11 10 10 11 12 12 12 12 11 11 11 11 11 11 10 11 11 11 11 11 11 11 11 10 10 9 8 8 7 7 6
12 12 13 14 14 14 15 15 16 16 18 18 18 18 18 18 18 17 16 14 13 14 14 15 15 15 15 14 13 13 13 13 13 13 12 13 13 13 13 13 13 13 12 12 11 10 9 9 8
13 13 15 16 16 17 18 18 18 19 21 22 22 23 23 23 22 22 21 20 19 18 17 17 17 17 17 17 16 16 16 16 16 15 14 14 14 15 15 15 15 15 15 14 13 13 12 11 10
14 15 16 17 18 19 20 21 21 22 23 25 26 27 27 27 26 26 26 25 24 23 22 21 20 20 20 20 20 19 19 18 18 17 16 15 15 16 16 16 16 17 17 16 16 15 15 14 12
16 17 18 19 20 21 22 23 23 25 26 27 29 30 30 31 30 29 29 29 28 28 27 26 24 23 23 23 23 22 21 21 21 19 18 17 16 17 17 17 17 18 18 18 18 17 17 16 15
17 18 20 22 23 24 24 25 26 28 29 29 30 31 32 33 33 32 32 33 32 32 31 30 29 27 27 25 25 25 24 24 23 22 21 20 19 19 18 18 18 18 19 20 19 19 18 19 18
18 20 21 23 24 25 26 28 29 30 32 32 33 34 34 35 36 36 37 37 37 37 36 35 33 32 30 29 27 26 27 27 26 25 24 22 21 20 20 20 19 18 19 20 20 19 20 20 20
19 21 22 24 25 26 28 30 31 33 34 35 36 36 36 36 37 38 39 41 41 40 40 39 38 36 35 34 32 30 30 30 30 28 26 24 23 22 22 21 20 20 20 21 21 20 20 21 22
19 20 21 23 25 27 28 30 32 34 35 37 37 38 39 38 39 40 41 41 42 43 43 42 41 40 39 38 36 33 32 32 31 31 29 27 26 24 24 23 22 21 21 22 22 23 23 23 23
18 19 20 22 25 27 29 30 32 34 36 37 39 39 39 39 40 40 41 43 43 44 45 45 44 44 42 41 39 37 36 36 34 33 32 30 29 27 26 25 24 23 23 23 23 23 24 24 24
18 19 19 21 23 25 28 29 30 32 34 35 37 37 37 38 38 38 39 40 42 43 44 45 45 45 45 43 41 40 39 38 37 36 33 31 30 29 28 28 27 25 24 24 24 23 24 24 25
16 17 18 19 21 23 24 27 27 28 29 31 33 34 35 36 36 37 36 35 37 39 41 43 44 45 45 45 43 42 41 41 39 37 36 34 32 31 29 29 29 28 27 26 25 25 25 25 25
14 16 18 19 20 21 22 24 25 24 25 28 30 30 31 32 32 31 32 33 34 34 36 38 40 42 43 44 44 43 42 40 39 37 36 36 34 33 32 31 30 29 28 26 25 25 26 26 26
14 16 17 17 18 20 21 22 21 21 22 24 25 26 27 27 27 27 27 28 29 29 30 32 34 37 39 40 41 41 40 39 39 38 37 37 36 33 32 32 31 30 29 28 27 26 27 27 28
15 16 17 18 18 18 19 19 20 20 21 22 22 23 23 22 22 22 22 22 22 23 24 26 27 29 32 35 37 37 37 38 38 38 37 37 36 35 34 33 32 31 30 30 29 29 28 27 27
15 16 17 17 17 17 17 17 17 18 20 20 20 21 20 19 19 18 17 17 17 18 18 19 21 23 25 28 30 32 33 34 35 35 35 35 35 35 34 33 33 32 31 30 29 29 28 28 27
16 17 17 16 16 17 17 16 17 18 19 19 19 20 20 18 18 17 15 14 14 13 12 14 15 17 20 22 24 26 27 29 30 31 32 33 33 33 33 32 32 31 30 30 29 29 27 27 28
17 18 18 17 17 18 17 16 16 17 18 18 19 19 19 17 16 15 13 13 12 10 9 10 11 11 13 16 19 21 22 24 25 26 28 28 28 28 29 29 29 29 29 29 28 27 27 26 27
18 18 18 17 18 18 17 16 17 17 18 19 19 19 18 17 16 15 14 13 11 9 8 7 8 8 9 11 13 15 16 18 20 21 21 22 23 23 23 24 24 24 25 26 26 26 27 26 26
18 19 19 18 18 18 17 17 17 18 18 18 19 19 19 17 16 16 15 14 11 10 8 7 6 5 6 7 8 10 12 13 14 15 15 17 17 18 18 18 18 19 19 21 22 24 25 25 25

GEFSSGP_500_meanwind_066.txt.gz
Wind_Speed
10 10 10 10 10 11 10 10 11 12 11 11 10 10 8 7 7 7 8 9 9 9 9 9 10 11 12 12 13 13 13 12 12 12 10 9 8 7 6 4 3 2 1 1 1 3 5 7 8
8 8 9 10 10 9 9 9 10 10 11 10 10 10 9 8 7 7 6 7 8 8 8 8 8 9 10 11 11 12 12 12 12 11 11 10 8 7 6 5 4 2 1 0 1 2 3 5 7
6 7 9 9 9 8 7 8 8 9 10 10 10 9 9 8 6 5 5 5 6 6 6 6 7 7 8 8 9 10 10 10 11 11 10 9 8 7 6 5 4 3 2 1 1 1 2 4 5
5 6 7 8 7 7 6 7 7 8 10 10 9 9 8 7 5 4 3 3 3 4 4 4 5 5 6 6 7 8 8 9 9 9 9 9 8 7 7 6 5 4 3 2 2 2 2 3 4
4 4 6 6 6 6 6 6 7 8 9 9 8 8 7 7 5 3 2 1 1 1 1 2 2 3 4 4 4 5 6 6 7 7 7 8 8 7 7 6 5 5 4 4 3 2 2 3 4
3 4 5 5 4 4 5 5 5 7 7 7 7 7 7 6 5 3 2 1 1 1 1 1 1 1 2 2 3 3 4 4 5 5 6 6 6 6 6 6 6 5 5 5 4 3 2 2 3
4 5 4 4 4 4 4 4 3 5 5 5 6 6 6 6 5 4 4 3 3 4 4 4 4 4 3 4 4 3 4 4 4 4 5 5 5 5 5 5 5 5 5 5 4 4 3 2 2
6 6 4 4 4 4 5 4 4 4 4 5 6 6 6 6 6 6 6 6 6 6 7 7 7 6 6 6 6 6 6 6 6 6 6 6 5 5 5 5 5 5 5 4 4 4 3 3 2
7 7 7 6 7 7 7 7 7 7 7 7 8 8 8 8 8 8 8 9 9 9 10 10 10 9 9 9 9 9 9 8 8 8 7 7 7 7 6 6 6 5 5 5 4 4 3 3 3
8 8 9 9 9 10 10 11 12 11 11 11 11 11 11 11 11 11 12 12 12 12 12 12 12 12 12 12 12 12 12 11 11 11 10 9 9 9 9 8 7 7 6 6 5 4 4 3 4
9 10 11 12 13 14 15 16 15 15 15 15 15 14 15 15 15 15 16 16 16 16 16 16 15 16 15 15 15 15 15 15 14 14 13 12 12 11 11 10 10 9 8 8 7 6 5 5 5
11 12 14 14 16 17 18 18 18 18 18 18 18 18 18 18 18 18 19 19 20 20 20 20 20 19 19 19 19 18 18 18 18 17 16 15 14 14 13 13 12 11 11 10 9 9 8 7 6
12 14 15 16 18 19 20 21 21 21 21 21 21 22 22 22 22 23 23 23 23 23 24 23 23 23 23 22 22 22 21 21 20 20 19 18 17 16 16 15 15 14 13 13 12 11 10 10 9
14 16 17 18 20 21 22 23 23 24 24 24 24 25 26 27 27 28 28 29 29 29 28 28 28 27 27 26 26 26 24 24 24 23 22 21 20 19 18 18 17 17 16 15 14 13 13 12 12
15 17 18 19 21 22 24 25 25 26 27 27 28 28 29 30 31 32 32 33 33 33 33 33 32 31 31 30 29 29 28 28 26 26 25 24 23 22 21 20 20 19 18 17 16 15 15 15 14
17 18 20 21 23 24 26 27 27 28 28 29 30 31 32 33 34 34 35 35 36 37 37 37 37 37 36 35 34 32 31 31 30 29 27 26 25 24 24 23 21 20 20 19 18 17 17 17 16
18 20 21 23 24 26 27 28 28 28 29 29 31 32 33 34 35 36 36 37 37 38 39 40 41 41 41 40 39 38 35 33 32 31 30 28 27 26 26 25 24 22 21 21 20 19 18 18 18
19 21 22 24 25 26 27 28 28 28 29 30 31 32 33 35 35 37 38 39 40 41 42 43 43 43 43 43 43 42 40 37 35 34 32 31 30 28 27 27 26 24 23 22 22 22 21 19 19
19 21 23 24 24 25 26 27 28 28 29 30 31 32 34 35 37 38 38 39 39 40 41 43 44 45 45 45 45 45 44 42 40 37 36 35 34 32 30 29 28 27 26 24 24 23 22 21 21
19 20 22 23 23 25 26 27 28 28 29 30 32 33 34 34 36 36 37 37 38 39 40 41 43 44 45 46 46 46 46 45 44 40 37 36 35 36 34 31 30 29 27 25 24 24 24 24 23
18 19 20 21 23 23 25 25 26 27 29 30 31 32 33 33 34 34 36 37 38 38 38 39 40 42 43 44 44 45 47 47 46 45 42 39 38 36 34 34 31 28 27 26 26 26 26 25 25
16 18 19 20 22 23 24 25 26 27 28 29 30 31 32 33 32 33 33 34 34 34 34 35 35 36 39 41 41 42 43 45 46 47 45 43 41 39 37 34 32 30 29 29 28 27 26 27 27
15 17 18 20 21 23 23 25 25 26 27 28 29 30 31 30 30 30 30 29 29 28 29 30 31 32 33 35 37 39 39 41 43 44 44 43 42 40 38 35 33 31 31 30 29 29 28 28 28
15 17 18 19 21 22 23 24 25 25 26 26 27 27 28 28 27 27 26 26 26 26 26 26 27 28 29 31 33 34 35 37 38 39 40 40 40 39 38 37 34 33 31 30 29 29 29 29 30
15 17 19 21 21 22 23 24 24 24 24 24 24 25 25 25 24 24 23 22 22 22 22 22 22 23 23 25 27 29 29 30 31 33 34 35 35 35 34 34 34 33 31 29 30 30 30 30 31
16 18 20 21 22 22 22 22 22 22 22 23 24 24 24 23 22 21 20 20 20 19 19 19 19 18 18 20 21 22 22 23 25 27 29 30 31 31 31 31 32 31 31 30 30 30 31 32 32
16 18 20 21 22 21 21 22 21 21 22 22 22 22 22 22 21 20 19 18 17 16 16 16 15 15 14 15 15 15 15 17 20 22 24 27 28 29 29 30 31 31 32 31 31 31 31 31 30
17 19 20 21 21 21 21 21 21 21 22 21 20 20 20 20 19 18 18 17 15 14 14 14 13 13 12 12 10 10 10 12 14 16 19 22 24 25 26 28 30 31 31 31 31 31 30 31 31
18 19 20 20 21 22 22 21 21 21 21 20 20 19 19 19 17 17 17 17 15 15 14 13 13 11 10 9 7 7 7 8 9 11 14 17 19 21 24 25 26 28 28 29 29 29 29 29 28
18 20 20 21 21 22 22 21 21 20 20 20 19 18 18 18 18 18 18 18 17 16 15 15 13 12 10 9 7 5 4 5 6 8 9 12 14 17 19 20 22 24 24 24 25 26 29 28 27

GEFSSGP_500_meanwind_072.txt.gz
Wind_Speed
13 13 13 12 13 13 11 10 11 11 11 10 9 9 9 8 8 9 9 9 10 10 10 10 10 10 10 10 10 10 10 9 9 8 8 8 8 7 7 6 6 5 5 4 4 4 5 7 8
11 12 11 11 12 10 10 9 9 10 10 9 9 8 8 8 8 7 7 7 8 8 8 8 8 8 8 8 8 9 9 9 8 8 8 8 7 7 6 5 5 4 4 3 3 3 4 5 7
9 10 10 10 10 8 8 8 8 8 9 8 8 7 6 6 6 5 5 5 5 6 6 6 6 6 6 6 6 7 7 7 7 7 7 7 6 6 6 5 5 4 4 3 3 3 3 4 5
7 8 8 8 7 7 6 7 6 7 7 7 7 5 5 4 4 3 3 3 2 3 3 3 4 4 4 4 4 4 5 5 5 6 6 5 5 5 5 5 4 4 4 3 3 2 3 3 4
5 6 6 5 5 5 5 5 5 5 6 6 5 4 3 3 2 1 1 1 2 2 2 2 2 2 3 3 3 3 3 3 3 4 4 4 4 4 4 4 4 4 3 3 3 3 3 3 4
3 3 3 2 2 3 4 4 4 4 5 5 4 3 3 2 1 1 2 3 4 5 5 5 5 5 5 5 5 4 4 4 3 3 3 3 3 3 3 3 3 3 3 3 3 3 3 3 3
1 1 1 1 2 3 4 5 5 5 5 5 5 5 5 4 4 4 5 6 7 7 8 8 8 8 8 8 8 7 7 6 6 5 5 4 4 3 3 3 3 3 3 3 3 3 3 3 4
3 3 3 3 4 4 5 5 6 7 7 7 7 7 7 7 7 7 7 8 9 10 11 11 11 12 12 12 12 11 11 10 9 9 8 7 7 6 5 5 4 4 4 4 4 4 3 3 4
5 5 5 6 6 6 6 7 8 9 9 10 10 11 11 11 11 11 11 11 11 12 13 14 15 15 16 16 15 15 14 13 13 12 11 11 10 9 8 8 7 6 6 6 5 5 4 4 4
7 7 7 7 8 8 8 10 11 12 12 12 13 14 14 14 14 14 15 15 16 16 17 18 18 19 19 19 19 19 18 17 16 16 15 14 13 12 12 11 10 9 8 8 7 7 6 5 5
9 9 9 10 10 11 12 13 14 15 15 15 16 16 16 17 17 18 18 19 19 20 21 22 22 23 22 22 21 22 21 21 20 20 19 18 17 16 15 14 13 12 11 10 10 9 8 7 7
11 11 11 12 13 14 15 16 17 17 17 18 19 19 20 21 21 22 22 23 23 24 25 25 26 27 27 27 26 25 25 24 24 24 23 22 21 20 19 17 16 15 14 13 12 11 11 10 9
12 12 13 14 15 16 17 18 20 20 21 22 22 23 23 24 25 26 27 27 28 29 30 31 31 31 32 31 31 30 29 28 27 28 27 26 25 23 22 20 19 18 17 16 15 14 13 13 12
12 14 15 16 17 18 20 21 22 23 24 25 26 26 26 27 28 29 30 30 31 32 33 34 35 35 35 35 35 35 34 33 31 30 29 29 29 27 25 24 22 21 20 19 18 17 16 15 15
14 15 17 18 19 20 22 23 24 25 26 27 28 29 29 29 30 31 32 33 34 35 35 37 38 38 39 39 38 38 38 38 37 35 34 33 33 32 30 27 26 24 23 21 21 20 19 18 17
16 17 19 19 21 22 24 24 25 26 27 28 29 30 31 31 32 33 34 35 36 37 38 39 39 40 41 41 41 41 41 40 40 40 38 36 36 35 34 33 31 28 26 24 23 22 21 20 19
16 18 20 21 22 24 25 26 26 27 28 29 30 30 31 32 33 34 34 35 36 37 38 39 40 41 41 41 41 42 43 43 42 41 41 39 38 38 37 36 35 32 30 28 26 24 23 22 21
18 19 21 22 24 25 26 27 27 28 29 29 30 31 32 33 34 35 35 36 36 36 37 39 40 41 41 42 42 42 43 43 44 44 43 42 42 41 39 37 35 35 33 31 29 27 26 24 23
18 19 21 23 24 25 26 27 28 28 29 30 31 32 33 34 35 35 35 36 36 37 38 38 39 40 41 41 42 43 43 44 44 44 44 45 43 42 40 38 36 35 34 33 32 30 28 27 25
17 20 21 22 23 25 26 27 28 29 31 32 32 33 33 34 34 35 36 35 35 36 36 37 37 37 37 38 40 42 43 45 45 44 43 44 44 44 43 42 39 38 36 35 34 32 30 29 27
17 19 20 22 23 24 27 28 29 30 31 31 32 32 32 32 32 33 33 33 33 33 33 33 34 34 34 35 36 38 40 42 44 44 44 44 44 45 44 42 40 39 38 37 35 33 30 29 29
16 17 19 21 23 25 26 29 28 29 30 30 31 30 30 30 30 30 30 30 30 30 30 30 31 31 31 32 33 34 35 37 40 41 43 43 43 44 45 43 41 40 39 37 35 34 33 31 29
15 17 19 21 22 24 25 26 27 27 28 28 28 28 28 28 28 28 28 27 27 27 26 26 26 27 28 29 29 30 31 32 35 37 39 40 41 42 43 43 41 41 39 37 35 34 33 31 30
14 17 18 20 21 22 23 24 26 25 25 25 26 26 25 25 25 25 25 24 24 23 23 23 23 23 24 24 24 25 26 27 29 32 34 36 38 40 41 40 40 40 39 38 36 35 33 32 32
14 17 19 21 22 23 23 24 24 24 24 24 23 23 22 21 21 22 21 21 20 20 19 20 20 20 20 19 20 21 22 23 24 27 29 31 33 35 37 38 38 38 37 36 36 36 34 34 34
14 16 18 20 21 22 23 23 23 23 23 22 21 20 20 20 20 19 19 18 18 18 17 17 17 17 16 15 16 16 16 17 19 22 24 26 28 30 32 34 35 34 35 35 34 34 34 34 34
15 16 17 18 19 21 22 22 22 22 22 21 20 20 19 19 19 19 19 19 19 17 16 15 15 14 13 13 13 12 11 12 14 16 18 20 23 26 28 30 31 33 34 34 34 33 34 34 33
14 16 17 18 20 21 21 21 22 22 21 20 20 20 19 18 19 19 19 19 18 18 16 15 15 12 11 11 10 10 9 9 9 11 13 16 18 21 24 26 28 30 31 32 31 31 32 32 33
14 15 17 17 18 19 20 21 20 20 20 20 20 20 20 19 20 20 20 19 18 18 17 16 15 13 12 11 10 9 8 7 7 7 8 11 14 17 20 22 25 27 29 30 30 30 31 31 31
14 15 16 17 18 19 19 19 20 20 19 19 19 20 20 21 21 21 20 20 20 19 18 18 16 14 13 12 11 10 8 6 5 5 5 6 7 11 14 17 20 23 26 28 29 30 30 31 31

GEFSSGP_500_meanwind_078.txt.gz
Wind_Speed
12 12 11 10 9 12 11 11 9 8 7 5 4 3 3 3 3 2 3 3 4 4 4 4 4 4 4 4 4 4 4 4 4 4 4 5 5 6 6 6 7 7 7 8 8 8 8 9 9
10 10 9 9 11 11 11 10 9 7 6 5 4 3 3 3 2 1 1 1 1 1 2 2 2 2 2 3 3 3 3 3 3 3 4 4 4 5 5 6 6 6 6 6 6 7 7 7 8
7 8 7 7 10 10 10 9 9 7 6 5 5 4 3 2 2 2 2 2 2 1 1 1 1 1 1 2 2 2 2 3 3 3 4 4 4 4 5 5 6 6 6 6 6 6 6 7 7
6 6 6 8 9 9 9 9 8 7 6 6 6 5 4 4 4 4 4 4 4 4 4 4 3 3 3 3 3 3 3 3 3 4 4 4 4 4 4 5 5 5 6 6 6 6 6 6 7
5 5 6 7 7 8 8 8 8 7 7 6 6 6 5 5 6 6 7 7 7 7 7 7 7 6 6 6 6 6 5 5 5 5 5 5 5 5 5 5 5 5 5 6 6 5 5 5 6
4 6 5 6 6 7 7 8 8 8 8 8 8 7 7 8 8 9 9 10 10 10 10 10 10 10 9 9 9 9 9 8 8 8 7 7 7 6 6 6 6 6 6 6 6 6 5 5 5
3 3 5 6 7 8 8 9 9 10 10 11 11 10 10 11 11 12 12 12 13 13 13 13 13 13 13 13 12 12 12 11 11 11 10 10 9 9 8 8 8 7 7 7 6 6 5 5 5
4 5 5 7 8 10 11 10 11 11 12 13 13 13 12 14 14 15 15 15 16 16 16 16 16 16 16 16 16 16 16 15 15 14 13 13 12 11 11 10 10 9 9 8 8 7 6 6 6
6 6 6 9 11 12 12 12 13 14 14 15 15 16 16 17 18 18 18 19 19 19 19 19 19 19 19 19 19 19 19 19 19 18 17 16 15 14 14 13 12 12 11 10 10 9 8 8 7
7 6 8 12 13 13 14 15 16 16 16 17 18 19 19 20 20 21 21 22 22 22 23 23 23 23 23 22 22 22 22 21 21 21 21 20 19 18 17 17 16 15 14 13 12 11 10 10 9
9 9 11 12 14 15 15 17 19 19 20 21 21 22 22 23 24 25 25 25 26 26 26 26 27 27 26 26 26 25 25 25 24 24 24 24 23 22 20 19 18 17 17 16 15 13 12 11 11
11 12 13 14 16 17 18 19 21 22 23 24 24 26 26 27 27 28 28 28 28 29 29 30 30 30 30 30 31 30 30 29 28 28 27 26 25 24 23 23 21 20 19 18 18 17 15 14 13
13 14 15 17 18 19 21 21 23 24 26 27 28 28 29 30 30 31 31 32 32 32 33 33 33 33 34 34 34 33 33 33 32 31 31 30 28 27 26 26 24 23 21 20 20 19 18 17 16
15 16 17 18 19 21 23 23 24 26 27 28 30 30 31 31 32 33 33 34 35 35 36 36 37 37 37 38 37 37 36 36 34 33 33 32 31 31 30 29 28 26 25 24 23 22 21 20 19
17 18 19 20 20 23 25 24 25 27 29 30 31 32 33 34 34 35 35 36 36 37 37 38 38 39 40 40 40 40 40 39 37 36 36 35 34 33 33 32 31 30 28 27 26 25 24 22 21
18 19 21 20 21 24 27 28 27 29 31 32 33 34 35 35 35 35 36 37 37 38 38 39 39 39 39 40 40 41 41 40 39 38 37 37 36 36 35 35 34 33 31 30 29 27 26 25 23
16 18 22 24 22 27 29 30 29 30 32 33 34 35 36 36 36 36 36 37 38 38 38 39 39 39 39 40 40 40 41 40 40 39 38 38 37 36 36 36 34 34 34 32 32 30 29 28 26
16 17 21 27 27 28 30 30 30 30 31 33 34 35 35 35 36 35 35 36 37 37 38 38 38 38 38 39 39 39 40 41 41 40 39 38 38 37 36 35 35 35 35 34 34 33 32 31 30
17 19 22 26 26 29 30 30 31 30 30 32 32 33 33 34 34 34 34 35 35 35 36 36 36 37 37 38 38 39 39 40 40 40 40 39 39 38 37 36 35 35 36 35 36 36 34 33 33
18 19 22 25 24 27 30 31 30 28 29 29 30 31 31 31 32 32 32 32 32 32 33 33 34 34 35 36 36 37 38 38 39 39 40 40 39 39 37 37 37 36 37 36 36 36 35 34 34
17 18 21 24 25 26 28 29 28 28 28 28 29 29 29 29 29 29 30 30 29 29 30 30 30 30 31 31 32 33 35 35 36 37 37 38 39 39 38 37 38 37 36 37 37 37 36 35 35
17 18 20 22 24 26 26 28 28 29 30 30 30 29 29 28 28 28 28 28 28 27 27 27 27 27 27 28 28 29 30 31 32 34 34 35 36 37 37 37 37 37 37 37 38 38 38 38 36
16 17 18 20 21 21 22 24 27 28 31 31 30 29 29 28 29 28 27 27 26 25 25 24 24 23 23 24 24 25 26 27 28 30 30 31 33 34 35 36 36 36 36 35 36 37 37 37 36
15 16 17 17 18 19 21 22 25 28 30 29 29 29 28 28 28 28 27 26 25 24 23 22 21 20 20 20 20 20 21 22 24 26 26 28 29 30 31 34 34 35 35 34 34 35 36 36 37
13 15 16 16 17 19 21 21 23 25 26 26 27 27 28 28 27 26 26 25 24 23 22 21 20 18 17 17 17 17 17 17 18 20 22 24 26 27 28 30 31 32 33 33 33 34 35 35 36
11 12 13 13 11 15 18 19 21 22 23 25 26 26 27 27 26 26 25 24 23 22 21 19 18 17 16 16 15 15 14 13 14 15 17 20 23 25 26 27 28 29 31 32 33 33 34 34 35
10 10 11 12 12 12 16 18 19 21 23 25 26 27 27 27 27 26 25 24 23 22 20 19 18 17 17 16 15 14 13 12 12 12 13 15 17 20 22 23 24 26 28 30 32 33 33 33 33
8 9 10 11 12 12 14 18 22 22 24 25 26 27 27 27 27 26 25 24 23 22 21 20 20 18 17 16 15 14 13 11 11 10 10 11 12 14 17 19 21 22 23 26 28 29 30 31 32
7 8 10 11 13 13 15 17 20 21 23 24 26 27 27 27 26 25 25 25 24 24 23 22 20 19 18 17 17 16 14 12 10 9 8 8 9 10 12 15 18 21 22 24 26 27 28 29 31
7 9 10 11 13 14 15 16 19 21 22 24 25 26 27 27 26 26 25 26 25 25 24 24 22 20 19 19 18 17 16 14 12 10 8 8 7 8 8 11 13 17 20 21 23 24 26 27 29

GEFSSGP_500_meanwind_084.txt.gz
Wind_Speed
12 11 10 10 8 9 9 11 11 11 9 8 7 7 6 6 5 4 4 4 3 3 3 3 3 2 1 1 1 1 1 2 3 4 5 6 6 7 8 9 9 9 10 10 11 11 12 12 11
10 8 8 8 9 9 10 11 11 10 9 8 7 6 5 5 4 4 4 3 3 3 3 3 2 2 2 2 2 2 3 3 4 4 5 6 7 7 8 8 8 9 9 9 10 10 11 11 10
7 6 6 6 7 8 10 10 10 10 10 9 7 6 6 5 4 4 4 4 4 4 4 4 4 4 4 4 4 5 5 5 6 6 6 6 7 7 8 8 8 9 9 9 9 9 9 9 9
6 5 5 6 7 9 10 10 10 10 10 9 8 8 7 6 5 6 7 7 7 7 7 6 7 7 7 7 7 7 7 7 7 8 8 8 8 8 8 8 8 9 8 8 8 8 8 8 8
5 6 7 7 7 9 9 9 10 10 10 9 9 9 8 8 7 7 8 9 9 9 10 10 10 10 11 10 10 10 10 10 10 10 10 9 9 9 9 9 9 9 9 8 8 7 7 8 8
7 7 8 9 7 7 9 10 10 10 11 11 11 11 11 10 9 9 10 10 11 11 12 13 13 13 14 14 14 14 13 13 13 12 12 12 11 11 11 10 10 10 9 9 9 8 8 7 7
6 8 8 9 8 9 11 11 11 12 13 13 14 13 13 13 13 13 13 13 14 14 15 16 16 17 17 17 17 17 17 16 16 15 15 14 14 13 13 12 12 11 11 10 9 9 8 8 7
7 8 9 9 9 10 11 12 14 14 15 16 16 16 17 16 17 17 17 17 17 18 18 18 19 20 20 20 20 20 19 19 20 19 18 18 17 16 16 15 14 13 12 12 11 10 9 8 7
7 8 9 9 10 10 11 13 15 17 18 19 19 19 20 20 20 20 20 21 21 22 22 22 23 23 23 23 24 23 23 22 22 22 21 21 20 20 18 18 17 16 15 14 13 12 11 10 9
8 8 9 11 11 12 13 14 16 18 20 21 21 21 22 22 22 22 23 24 25 26 26 26 26 26 26 26 27 27 27 25 25 24 24 24 24 23 22 20 20 19 18 16 15 14 13 12 11
9 9 10 12 13 14 16 17 19 21 21 22 22 23 24 24 25 25 26 27 27 28 29 30 30 30 29 29 29 29 29 28 28 27 27 26 26 26 25 24 23 22 21 19 18 17 16 15 13
10 11 12 13 15 16 18 20 21 22 23 23 24 26 27 28 29 29 30 30 31 31 32 32 33 33 33 33 33 32 31 31 31 30 30 28 28 28 28 28 27 25 24 23 21 20 18 17 16
11 13 14 16 17 18 19 21 22 24 24 26 27 28 30 31 32 32 33 33 33 33 34 35 35 35 35 35 36 36 35 34 34 33 32 31 31 30 30 29 29 28 27 25 24 22 21 20 19
13 14 15 16 17 18 18 19 22 25 26 27 28 29 30 31 32 32 33 33 34 35 35 36 37 37 37 37 37 36 36 36 36 36 35 34 34 32 31 32 31 31 29 28 27 26 24 23 21
14 15 16 16 16 17 17 19 23 25 27 28 28 29 29 29 30 31 32 32 33 34 35 35 36 37 38 38 38 38 38 37 36 37 36 36 36 35 33 33 33 32 32 30 29 28 27 26 24
15 15 16 16 17 19 20 21 24 26 27 28 29 29 30 30 31 31 31 32 32 33 33 34 35 36 36 37 38 39 39 39 38 38 38 37 37 37 36 35 34 34 33 31 31 32 29 27 27
16 16 16 17 19 21 21 23 25 26 26 27 28 28 29 29 29 29 30 31 31 32 32 33 33 34 35 36 36 37 37 38 39 39 38 38 38 38 37 36 35 35 34 33 32 33 33 31 28
15 16 17 18 21 21 22 24 25 25 26 27 27 28 28 29 29 30 29 29 29 30 30 30 31 31 32 33 34 35 35 36 38 38 38 38 38 38 37 36 35 35 35 35 34 33 32 32 31
14 15 17 19 21 22 23 23 23 24 24 25 25 27 28 30 30 30 29 29 29 29 29 29 29 29 30 31 32 33 34 35 36 37 38 38 38 38 38 37 37 36 35 35 35 33 32 32 33
13 15 18 19 21 22 22 21 21 21 22 23 25 27 28 30 30 30 30 29 28 27 26 27 27 27 27 27 29 30 31 33 34 35 36 36 37 37 38 38 38 37 36 36 35 35 34 34 34
13 15 17 18 19 20 20 20 19 20 22 24 25 27 29 30 30 30 29 28 26 26 25 25 24 24 24 24 25 26 28 29 31 32 33 34 35 36 37 38 38 38 38 38 37 36 35 35 34
12 14 16 17 18 19 19 18 19 21 22 24 26 28 30 31 31 30 29 28 26 24 23 22 22 22 22 22 22 22 23 24 25 27 29 31 33 34 36 37 38 38 38 38 38 37 36 36 36
11 13 14 15 16 17 17 17 18 21 23 25 27 29 30 31 31 30 29 28 26 24 22 21 21 21 20 20 19 19 19 20 21 23 25 27 29 31 33 35 36 37 38 38 38 38 37 37 37
9 11 12 14 14 14 15 16 18 20 23 25 27 28 30 30 30 30 29 27 26 25 23 21 21 20 19 19 18 17 17 17 18 19 21 23 25 27 29 31 34 35 37 38 39 38 38 38 38
8 9 10 12 13 13 14 16 18 20 22 24 26 27 29 29 29 29 28 27 26 26 24 22 21 20 20 19 18 16 15 14 14 15 17 18 20 22 25 28 30 33 35 37 39 39 39 39 39
6 7 9 11 12 13 14 16 17 19 20 22 24 26 27 28 28 28 27 27 27 26 25 24 22 21 20 19 18 16 15 13 12 11 12 14 16 18 21 24 27 30 32 34 36 37 38 39 39
5 6 8 10 11 12 13 14 16 18 19 21 23 25 26 28 28 28 28 27 27 26 26 25 23 22 21 20 19 16 15 13 12 10 9 10 12 14 17 20 23 26 29 31 33 35 37 38 39
4 6 7 9 11 12 12 14 16 18 19 21 23 25 26 27 28 28 28 27 27 27 27 26 25 24 23 21 19 17 15 14 12 10 8 8 9 10 13 17 19 23 26 28 29 32 35 36 38
3 5 6 8 10 11 12 14 16 17 19 21 23 25 26 26 27 28 28 28 27 27 27 27 26 25 24 23 22 20 17 16 14 11 8 7 7 8 10 13 15 18 21 24 26 29 32 34 35
2 4 6 7 9 10 12 14 16 17 19 21 23 24 25 26 27 27 28 28 28 27 27 27 27 26 26 25 24 22 20 18 15 13 10 8 6 6 7 9 11 14 17 21 22 25 28 31 34

GEFSSGP_500_meanwind_090.txt.gz
Wind_Speed
11 11 11 11 10 10 9 8 9 9 9 8 7 7 7 7 6 6 6 6 5 5 5 5 5 4 4 3 3 2 2 2 3 4 4 5 6 6 7 7 7 7 8 8 9 9 9 10 10
10 10 10 10 9 8 7 8 9 9 8 8 8 7 7 7 7 6 6 6 6 6 6 6 6 6 6 6 5 4 4 4 4 5 5 6 6 7 7 7 7 7 7 7 7 7 8 9 9
9 9 10 9 8 7 7 7 8 8 8 8 8 8 8 8 8 8 8 8 8 8 8 8 8 8 8 8 7 7 7 7 7 7 7 7 7 8 8 7 7 7 7 7 7 7 7 7 7
10 10 10 8 8 7 7 7 8 8 9 9 10 10 9 10 10 10 10 10 10 11 11 11 11 11 10 10 10 10 10 10 10 9 9 9 9 9 9 8 8 8 7 7 7 6 6 6 6
9 9 10 9 9 9 9 9 8 9 10 11 11 11 11 12 12 12 12 12 13 13 12 13 13 14 13 12 12 13 13 13 13 13 12 12 11 10 10 10 9 9 8 7 6 6 5 5 5
8 9 9 9 10 10 10 10 11 11 12 12 13 13 13 14 13 14 15 15 15 15 14 15 16 16 16 17 16 16 16 16 16 16 15 15 14 13 12 12 11 10 9 8 7 6 6 5 4
8 9 9 10 10 11 12 13 13 13 13 14 14 15 15 16 16 17 18 18 17 17 17 17 19 20 20 20 20 20 20 19 19 19 19 18 18 17 16 14 13 13 12 10 9 8 7 6 6
9 10 10 10 11 12 13 14 15 15 16 17 17 17 18 18 18 18 19 19 20 20 20 20 21 23 23 23 24 24 23 23 23 22 22 22 21 20 19 18 17 15 14 13 12 11 9 8 7
10 11 11 12 13 14 15 16 17 18 19 19 19 20 20 21 21 21 21 22 23 23 24 24 25 25 26 26 26 26 26 27 26 26 25 25 25 24 22 21 20 19 17 16 15 13 12 11 9
10 12 13 14 15 16 18 19 19 20 20 21 22 22 23 23 24 24 24 25 26 27 28 29 29 29 30 30 31 31 30 31 30 29 28 28 28 27 26 25 23 22 20 19 18 16 15 13 12
11 12 14 15 16 17 19 19 20 21 22 22 23 24 25 25 26 27 27 28 28 29 29 30 31 32 33 33 33 34 34 34 34 34 33 31 30 30 29 28 27 25 23 22 21 19 18 16 14
12 13 14 16 17 18 19 20 22 23 23 24 25 25 26 26 27 27 28 28 29 30 31 31 32 32 34 34 35 36 36 36 36 37 36 36 34 33 32 30 30 28 27 25 24 23 21 20 18
13 13 14 16 17 19 20 21 22 24 24 25 25 26 26 27 27 28 28 29 30 30 31 31 32 32 34 34 35 36 38 38 38 38 37 37 36 35 35 33 31 30 29 28 27 26 24 22 21
13 14 15 16 17 19 20 21 23 23 24 24 25 26 26 27 28 28 29 30 31 32 31 31 31 32 32 33 34 35 37 38 38 39 39 39 38 37 36 35 33 33 31 31 30 28 27 25 23
14 15 15 16 17 19 20 21 22 23 23 24 25 26 26 27 28 28 29 30 31 32 32 32 31 31 32 32 33 33 34 36 37 39 39 39 40 40 38 37 36 35 34 33 32 31 29 28 26
14 15 15 16 18 19 20 20 21 22 23 23 24 26 26 26 27 27 28 29 30 30 31 31 31 31 31 31 31 32 33 34 35 37 39 39 40 41 40 39 38 38 37 35 33 32 31 30 29
14 15 15 16 17 18 19 20 21 21 22 23 24 25 25 26 27 28 28 29 29 29 29 30 30 30 30 30 30 30 31 32 33 34 36 38 39 40 41 41 40 40 38 36 35 34 32 31 31
14 15 16 16 17 17 18 19 20 21 22 23 23 24 25 26 27 28 28 28 28 29 29 28 28 27 27 27 28 28 29 30 31 32 33 35 37 39 40 41 42 41 40 39 37 36 35 33 32
14 15 15 15 16 17 17 18 20 20 21 22 23 24 25 26 27 28 28 28 29 29 29 28 26 25 25 24 24 25 25 26 28 30 31 32 34 36 38 40 41 42 41 40 39 38 36 36 35
14 14 14 14 15 16 17 18 19 19 20 21 22 24 25 26 27 28 29 29 28 28 28 27 26 25 24 23 22 22 23 23 24 26 29 30 32 34 36 37 40 41 42 43 41 40 38 36 36
13 13 13 14 14 15 16 16 17 18 19 20 22 23 25 27 27 28 29 29 28 28 28 27 26 25 24 23 22 21 21 22 22 24 26 28 30 32 34 35 37 39 41 42 42 41 41 38 36
12 12 12 13 13 14 15 15 16 17 18 20 22 24 25 27 28 29 29 29 28 28 27 27 27 25 24 23 22 21 21 21 21 22 23 25 27 30 31 33 35 37 39 41 41 41 40 40 38
10 11 11 12 12 13 14 14 15 16 18 20 22 24 26 28 29 29 29 29 29 28 28 27 27 26 25 23 22 22 21 20 20 19 20 21 23 25 28 31 33 36 38 39 41 40 40 40 40
9 10 10 10 11 11 12 13 14 16 18 20 22 25 27 28 28 29 29 29 30 29 29 28 27 26 25 24 23 22 21 19 19 17 16 17 18 21 24 27 31 33 35 38 39 40 40 40 40
8 9 9 9 10 10 11 12 14 16 18 20 23 24 26 27 28 29 29 30 30 30 29 29 28 27 26 25 24 23 21 19 17 15 14 14 15 17 20 23 26 30 33 36 37 38 39 40 40
7 7 8 9 8 9 10 12 14 16 18 20 23 24 25 27 27 28 29 30 30 30 29 29 28 28 28 27 25 24 22 20 18 15 13 12 12 13 15 18 21 25 29 32 35 37 38 39 40
5 6 6 7 7 8 9 11 13 15 17 20 22 24 25 26 27 28 29 29 30 30 29 29 29 29 29 28 27 25 23 22 19 17 14 12 11 10 11 14 17 21 24 28 32 34 36 38 38
4 4 4 5 6 7 8 11 13 15 17 19 21 23 25 26 27 28 29 29 30 30 30 30 29 29 29 28 27 26 25 23 21 19 16 13 10 8 9 11 14 17 20 24 29 31 33 36 37
4 3 3 4 5 7 8 10 12 14 16 18 20 22 24 25 27 28 29 29 30 30 30 30 30 30 30 29 28 27 26 25 22 20 17 14 11 8 8 9 10 13 17 20 24 28 30 33 35
4 2 2 3 5 7 8 10 12 14 16 18 19 21 23 24 26 27 28 29 30 30 30 30 31 31 31 30 29 28 28 27 25 22 19 15 12 9 7 7 8 10 13 16 20 24 27 30 32

GEFSSGP_500_meanwind_096.txt.gz
Wind_Speed
10 10 10 9 8 9 8 7 6 6 6 6 6 5 5 6 6 6 6 5 5 5 5 5 5 5 6 7 7 8 8 9 11 11 12 12 13 13 12 12 12 11 11 11 11 10 9 9 8
10 9 9 8 8 8 7 7 7 7 7 7 6 6 7 7 7 8 8 8 7 8 7 8 8 8 8 9 9 9 10 11 11 12 12 13 13 13 13 13 13 12 12 12 11 10 10 9 8
9 9 9 8 8 8 7 7 7 8 7 8 8 8 9 9 9 10 10 10 10 10 10 10 10 10 11 11 12 13 13 13 13 13 14 14 14 14 13 13 13 13 12 12 11 10 9 9 8
8 8 8 8 8 8 8 7 8 9 9 10 10 11 11 11 12 12 12 12 13 13 13 13 13 13 13 13 14 15 15 15 15 15 15 15 15 15 15 14 14 13 13 12 11 10 10 9 8
7 7 8 8 8 8 9 9 10 11 12 13 13 13 13 14 14 14 14 14 15 15 16 17 16 16 17 16 16 17 18 18 18 18 17 17 17 17 16 16 15 14 13 13 12 11 10 9 8
6 7 7 7 8 9 10 11 12 13 14 15 15 15 15 16 16 16 16 17 17 18 18 19 20 20 20 20 20 20 21 21 20 20 20 19 20 19 19 18 17 16 14 14 13 12 11 10 9
6 7 7 8 8 10 11 12 13 15 15 16 16 17 18 19 19 20 20 20 20 21 21 22 22 23 23 23 24 24 24 23 23 23 23 22 22 22 21 20 19 18 17 16 15 14 13 11 10
7 8 8 9 10 11 13 14 15 16 17 17 18 19 20 21 22 22 23 23 23 24 25 25 26 26 26 26 27 26 27 27 27 26 26 25 25 23 23 22 21 20 19 18 17 16 15 13 12
8 9 10 11 11 12 14 16 17 17 18 19 20 21 22 22 23 23 24 24 24 25 26 27 28 29 31 31 30 30 31 31 30 30 30 28 28 27 26 25 23 22 21 20 20 19 18 16 14
9 10 11 12 13 14 16 17 18 18 19 20 21 22 22 22 23 23 24 25 25 26 27 28 29 30 31 33 34 34 34 34 34 33 33 33 31 30 29 28 27 25 24 23 22 22 21 19 17
10 11 12 13 14 15 17 18 19 20 20 21 22 22 22 22 23 23 24 25 26 27 28 28 29 29 30 31 33 35 36 37 37 37 37 37 35 33 33 32 31 29 28 26 25 24 23 22 20
11 11 12 14 15 16 17 18 19 20 21 21 21 21 22 22 23 24 25 26 27 27 27 27 28 28 29 30 32 33 35 36 37 38 39 40 39 37 35 35 34 32 31 30 29 27 25 25 23
11 12 13 14 15 16 17 18 19 20 20 21 21 21 22 23 24 24 25 26 26 27 27 27 27 28 28 29 30 32 34 36 37 38 39 40 41 41 39 37 36 35 34 32 32 29 28 27 26
11 12 13 14 15 16 17 18 19 19 20 20 21 21 22 23 24 24 25 25 26 26 27 27 27 27 27 28 29 30 32 34 36 38 39 41 41 41 42 41 39 37 36 35 34 33 31 29 28
12 12 13 14 15 16 16 17 18 18 19 19 20 21 22 23 24 25 25 25 26 26 27 27 27 26 26 27 27 28 30 32 33 36 38 39 41 41 41 42 42 40 38 37 36 35 34 32 30
12 12 13 14 15 15 16 16 17 18 18 19 20 21 23 24 24 24 25 26 26 27 26 26 25 25 25 25 25 27 28 29 30 32 34 37 39 40 42 42 42 42 40 39 38 37 36 35 32
11 12 13 14 14 14 14 15 16 17 18 18 20 21 22 24 24 24 25 26 27 27 26 25 24 24 24 25 25 26 26 27 28 29 31 33 36 38 40 41 42 42 41 40 39 38 38 37 35
11 12 12 13 12 13 13 14 15 16 17 18 19 20 22 23 24 25 26 26 27 27 26 25 24 24 24 24 25 24 24 25 25 26 28 30 32 35 37 39 41 42 42 41 41 39 39 39 38
12 11 11 11 11 11 12 13 14 15 15 17 18 19 21 23 24 25 26 26 27 27 26 25 25 25 25 24 24 23 23 23 23 24 25 26 29 31 34 36 38 40 41 41 41 41 40 39 39
11 11 10 10 10 10 11 12 13 13 14 15 17 19 21 23 24 25 26 26 27 27 26 26 25 25 25 24 23 23 22 22 22 22 22 24 26 28 30 33 36 37 39 41 42 43 42 41 39
11 10 9 9 9 9 10 10 11 12 13 14 17 19 21 22 24 25 26 26 27 27 26 26 26 26 25 25 24 23 21 21 20 19 20 21 23 25 28 30 33 35 37 39 42 43 43 42 41
10 9 8 8 8 9 9 9 9 10 12 14 16 18 21 22 24 25 25 26 27 27 27 26 26 26 26 25 24 23 22 20 19 18 18 18 19 21 24 28 31 34 35 37 39 41 42 43 42
9 8 7 7 7 7 7 7 8 10 12 14 16 18 20 22 24 25 25 26 27 27 27 27 27 27 27 26 25 24 22 21 19 18 17 16 16 18 21 24 27 31 33 35 37 40 41 42 42
9 8 6 5 6 5 5 6 7 9 11 13 16 18 20 22 23 24 25 26 27 28 27 27 28 28 28 28 27 25 24 23 21 18 16 14 13 14 17 20 24 27 30 32 35 38 40 41 42
8 6 5 4 4 4 4 5 7 9 11 13 15 18 20 22 23 24 25 26 27 28 28 28 29 29 29 28 28 27 26 24 22 19 16 13 10 10 12 16 20 24 28 31 33 35 37 39 41
8 6 4 3 2 2 3 5 6 8 10 12 15 17 19 21 23 24 25 26 27 28 28 28 29 30 29 29 28 28 27 25 23 21 18 13 9 8 9 12 15 20 24 28 31 33 34 37 39
8 6 4 3 2 1 3 5 6 8 10 12 14 16 18 21 23 24 25 26 27 28 28 29 29 30 30 30 29 29 27 26 24 22 20 15 11 8 7 9 12 16 20 24 28 30 32 35 37
8 6 5 3 2 1 2 4 6 8 10 12 14 16 18 20 22 23 25 26 27 28 28 29 29 30 30 31 30 30 28 26 25 23 21 18 14 10 7 7 9 12 16 20 24 28 30 32 35
8 7 5 4 2 1 2 4 5 7 9 11 13 15 17 19 21 23 24 25 26 27 28 29 29 30 30 31 31 31 30 28 26 25 22 20 17 13 10 7 7 9 13 17 20 24 27 30 32
9 7 6 5 3 2 2 3 5 7 9 11 13 15 17 18 20 22 23 24 25 26 27 28 29 30 30 31 31 31 31 29 27 26 24 22 19 16 13 9 6 7 10 14 17 20 24 27 29

GEFSSGP_500_meanwind_102.txt.gz
Wind_Speed
10 10 9 9 7 8 9 9 10 10 10 10 10 11 10 11 11 11 11 12 11 11 11 11 11 12 12 13 12 12 13 13 14 15 15 16 17 17 17 17 17 17 16 15 15 14 13 12 12
9 8 8 8 8 9 9 10 10 11 11 12 12 13 12 12 13 13 13 13 13 13 13 14 14 13 14 14 15 15 15 16 16 16 17 17 18 18 18 18 18 17 17 17 16 15 14 13 12
8 7 7 7 8 9 9 10 10 11 12 13 14 14 14 14 14 14 15 15 15 15 15 16 16 15 16 17 17 18 18 18 18 18 19 19 19 19 19 19 19 18 18 17 16 16 15 14 12
7 7 7 7 8 9 10 11 12 12 12 14 15 14 15 15 16 17 18 18 18 18 18 18 19 18 18 19 20 21 21 21 20 21 22 22 21 20 20 20 20 19 18 18 17 17 15 14 13
7 7 7 8 9 10 11 12 13 14 15 16 16 16 17 18 19 20 21 21 21 20 21 21 22 22 22 22 22 22 23 23 23 22 22 23 23 23 22 22 21 21 20 19 18 17 16 15 13
7 7 9 9 10 12 12 13 15 16 17 18 18 18 18 20 21 21 21 22 22 22 23 23 24 24 24 24 25 25 26 26 26 25 25 25 24 24 24 24 24 23 21 20 20 19 17 16 14
7 8 9 10 11 12 13 15 17 18 19 19 20 20 20 21 21 22 22 22 22 23 23 24 24 25 25 26 27 28 27 27 27 28 28 27 27 26 26 26 25 25 24 22 21 20 18 17 16
8 8 9 11 12 13 14 16 17 19 19 19 21 21 21 21 21 21 22 22 23 23 24 25 25 26 27 27 28 29 29 29 29 29 30 29 29 28 29 28 27 26 26 25 24 22 20 19 17
9 9 10 12 14 14 15 17 17 18 18 19 20 21 21 21 21 21 22 23 23 24 25 25 26 26 27 27 28 28 30 30 31 31 32 31 31 30 30 29 29 28 28 28 27 25 23 21 19
10 10 11 13 14 15 16 17 18 18 19 19 19 20 20 21 21 22 23 23 24 24 25 25 25 25 25 26 27 28 30 30 31 32 33 33 33 33 32 32 31 30 29 29 28 27 25 24 22
11 12 12 13 14 16 17 17 17 18 19 19 20 19 20 21 22 23 23 24 24 25 25 26 26 26 26 26 26 27 28 29 30 31 32 32 33 34 35 34 33 32 32 31 29 29 28 26 25
12 12 13 14 14 15 16 17 17 17 19 19 20 20 21 22 22 23 23 24 25 25 25 25 25 26 26 25 25 25 26 27 29 31 31 31 32 33 34 35 35 33 32 34 32 30 30 28 27
12 13 13 14 14 15 16 17 17 17 18 18 19 20 21 21 22 23 24 25 26 26 26 26 26 25 25 25 25 24 25 26 27 28 30 31 32 32 33 34 36 35 34 33 33 32 32 30 28
12 13 14 13 14 14 16 16 16 16 16 17 18 19 20 21 22 23 25 26 26 26 27 27 26 26 25 25 25 25 25 25 26 26 28 30 31 32 33 34 34 36 36 34 35 34 33 32 31
12 13 13 12 13 14 15 16 16 15 16 17 18 18 19 21 22 23 25 26 27 27 27 27 26 26 25 24 25 25 25 25 25 25 26 28 29 31 33 33 35 35 36 37 36 36 35 33 32
12 12 13 13 13 14 15 16 16 16 16 17 17 18 19 20 22 23 25 26 27 27 27 27 26 26 26 25 25 25 24 24 24 25 26 27 27 29 30 32 34 35 35 37 37 36 36 36 34
9 11 11 15 13 14 14 15 16 15 16 16 17 18 19 20 22 24 25 26 26 27 27 27 27 27 26 26 25 24 23 23 23 24 25 25 26 27 28 30 32 34 35 36 37 36 35 36 36
10 11 12 14 14 14 15 15 15 15 15 15 16 18 19 21 22 24 25 26 26 27 27 27 27 27 27 26 25 24 23 23 22 22 22 22 23 24 25 27 29 32 34 36 38 38 36 36 36
12 12 13 13 14 14 14 14 14 14 14 14 16 17 19 21 23 24 24 25 26 27 27 28 28 27 27 26 26 25 24 23 22 22 21 21 21 22 24 25 27 29 31 33 36 37 36 37 37
14 13 12 13 13 13 12 12 12 12 12 14 15 17 19 21 22 23 25 25 26 26 27 28 28 28 27 27 26 25 24 23 22 20 19 19 20 20 22 23 25 27 29 31 34 37 37 37 38
15 14 13 12 12 12 11 10 10 9 10 12 14 16 18 20 21 23 24 25 25 26 27 28 29 29 28 27 26 25 25 24 22 20 18 18 18 18 19 20 21 24 27 29 32 34 37 37 38
15 14 12 11 11 10 9 9 9 10 10 11 13 15 17 19 21 22 24 24 25 26 27 28 29 29 29 28 27 26 25 24 23 20 18 17 16 16 16 17 19 21 24 27 30 32 34 36 37
15 12 10 9 9 8 8 8 10 10 10 11 13 15 16 18 20 22 23 24 25 26 27 28 29 30 29 29 28 27 26 25 24 22 20 18 17 16 15 16 17 19 21 24 27 30 33 35 36
13 11 9 7 6 6 7 8 10 10 11 12 13 14 16 18 20 22 23 24 25 26 27 28 29 29 29 29 29 28 28 26 25 23 21 20 18 16 15 15 16 17 19 22 25 28 31 33 35
12 10 8 4 4 7 10 11 11 10 11 11 12 14 15 17 19 21 22 23 24 26 27 28 29 29 29 29 29 29 29 28 26 25 22 21 19 17 15 14 14 15 17 20 22 25 28 31 34
12 11 10 8 7 9 11 12 9 8 9 10 11 13 15 17 18 20 21 23 24 25 26 28 29 29 30 30 30 30 29 29 28 26 24 22 20 18 16 14 12 12 14 17 19 23 26 29 32
12 11 11 10 9 8 8 11 8 8 9 9 11 12 14 16 17 19 20 22 23 25 26 27 29 30 30 30 30 30 30 29 29 28 26 24 21 19 17 15 12 10 11 14 16 20 23 27 30
13 12 11 10 10 7 6 11 9 6 8 9 10 12 13 15 16 18 19 21 23 24 26 27 28 29 30 31 31 31 30 30 29 29 27 25 22 20 19 16 12 9 8 11 13 17 20 24 27
13 12 12 11 10 9 9 12 8 8 8 9 10 11 13 14 15 17 19 20 22 24 25 27 28 29 30 31 31 31 31 31 30 29 28 27 24 22 20 17 14 9 6 7 10 12 16 20 24
13 13 13 12 12 11 11 10 8 8 8 8 9 11 12 13 15 16 18 20 21 23 25 26 27 28 30 30 31 31 32 31 31 30 29 28 26 24 21 18 16 11 7 5 6 10 12 16 20

GEFSSGP_500_meanwind_108.txt.gz
Wind_Speed
5 5 5 5 6 7 7 8 8 8 8 8 9 10 10 10 10 9 10 10 11 11 11 11 11 11 11 12 13 14 14 15 16 17 17 18 19 19 19 19 19 20 20 19 18 17 16 16 15
6 6 6 6 7 8 8 9 9 9 10 9 10 10 10 11 11 10 11 11 11 12 13 13 13 13 13 14 15 16 16 17 18 19 19 20 20 20 20 20 20 20 20 19 19 18 17 16 15
8 7 7 7 7 8 9 9 9 10 12 12 12 12 12 12 12 12 13 13 13 14 14 14 14 15 16 16 17 18 18 19 20 21 21 21 22 22 22 22 22 21 20 20 20 19 18 17 16
8 8 7 7 7 7 8 9 10 11 12 12 13 13 13 13 13 13 13 14 14 15 15 16 16 17 18 18 19 20 21 21 22 23 24 24 24 24 23 23 23 23 22 21 20 20 19 18 16
8 8 9 8 8 8 10 11 12 12 12 13 13 14 14 14 14 14 14 14 14 15 16 16 17 18 19 20 20 21 21 22 23 24 26 27 26 26 26 25 24 24 23 22 21 20 20 19 17
7 8 8 9 9 11 11 12 13 13 13 13 14 14 14 14 14 14 15 15 15 16 16 17 18 19 19 20 21 22 23 23 24 25 26 27 27 27 27 27 26 25 24 23 22 21 20 19 18
8 8 9 10 11 11 12 13 13 14 14 14 14 14 14 14 14 15 15 15 16 16 17 17 18 18 19 20 22 22 23 24 25 26 27 28 28 28 27 27 27 27 27 25 24 23 22 20 19
9 10 10 10 11 11 12 13 13 13 13 14 14 14 14 14 15 15 15 15 16 17 18 18 18 19 19 20 21 23 24 25 26 27 27 29 30 29 29 28 28 28 28 27 26 25 24 23 21
10 10 10 10 11 11 12 12 12 12 12 13 13 14 14 15 15 16 16 17 17 18 19 19 19 19 20 21 21 22 23 24 25 26 27 28 29 30 30 30 30 29 30 29 28 27 26 26 24
11 11 11 10 9 10 12 13 13 13 13 13 13 14 14 14 15 16 17 18 18 19 19 20 19 19 20 20 20 20 21 23 24 25 26 27 28 29 30 31 31 31 31 30 29 28 27 27 26
11 10 11 10 9 10 11 12 12 12 12 12 13 13 13 14 16 17 17 18 18 19 19 20 20 20 20 20 20 20 21 22 23 24 25 26 27 28 29 31 31 31 32 32 31 30 29 28 27
11 11 11 10 10 9 10 11 11 11 11 12 12 13 14 15 16 17 18 19 19 20 20 21 21 21 21 21 21 21 21 21 22 23 24 25 26 28 29 30 31 31 32 33 33 32 31 29 28
13 12 10 9 9 9 9 10 11 11 11 11 12 13 13 15 16 17 18 20 21 22 22 22 22 22 22 21 21 21 20 20 21 22 23 24 25 26 28 29 31 31 31 33 34 33 32 31 30
13 12 10 9 9 9 9 9 9 10 10 11 12 12 13 15 16 18 19 21 22 23 23 23 24 24 23 23 22 21 20 20 20 21 21 22 24 25 26 27 29 30 31 32 33 34 34 33 32
14 12 11 9 8 8 8 8 8 9 9 10 11 12 13 15 16 18 20 21 22 23 24 24 25 25 25 23 23 22 21 21 20 20 20 21 22 23 24 25 27 29 30 31 33 34 34 34 33
14 13 11 9 8 9 8 7 6 7 8 9 10 11 13 15 17 18 20 21 22 23 24 24 25 25 25 24 23 23 22 21 20 20 19 19 20 21 22 24 26 27 28 30 32 33 34 35 34
14 13 11 9 8 8 7 6 5 5 6 8 9 11 13 15 16 18 20 21 22 23 24 24 25 26 25 25 24 23 22 22 21 20 19 18 18 19 20 22 24 26 27 29 31 33 34 35 36
14 13 11 9 8 7 6 5 5 5 6 7 9 11 13 15 16 18 19 21 22 23 24 25 26 26 26 25 25 24 23 22 21 20 19 18 18 18 19 21 22 25 27 28 30 32 34 35 36
14 13 11 9 8 7 5 5 5 5 5 7 8 11 13 15 16 18 20 21 22 23 24 25 25 26 26 26 26 25 24 22 21 20 19 17 17 17 18 19 21 23 26 28 30 32 33 35 36
14 12 11 9 8 7 5 4 4 5 5 6 8 10 13 15 16 18 20 21 22 23 24 25 26 26 27 27 26 26 25 23 21 20 19 18 17 16 16 17 19 22 24 27 29 31 34 34 35
14 12 10 9 8 7 5 5 4 4 4 6 8 10 13 15 16 18 19 21 21 22 23 25 26 26 27 27 27 27 26 24 22 21 20 19 17 16 16 16 18 20 22 25 27 30 33 35 36
13 11 10 8 7 6 5 5 4 4 4 5 7 9 11 14 15 17 19 20 21 22 23 24 25 26 27 28 28 28 27 25 23 22 21 20 18 17 15 15 15 17 19 22 25 28 31 34 36
12 10 9 8 7 6 6 4 2 2 3 4 6 8 10 12 14 16 18 19 20 21 23 24 25 26 28 28 29 28 27 26 24 23 22 21 20 18 16 14 14 15 17 19 22 25 29 32 34
11 10 9 9 8 8 7 5 3 1 2 3 5 7 10 11 13 15 16 18 20 21 23 24 25 27 28 28 28 28 28 27 26 24 23 22 21 19 17 15 13 13 15 17 19 22 25 29 32
12 11 10 10 10 10 8 6 3 2 2 3 4 6 9 11 12 14 16 17 19 21 22 24 25 27 27 28 28 28 28 28 27 25 24 23 22 20 18 15 13 12 12 14 17 20 23 26 30
12 11 11 11 12 10 9 7 4 4 3 3 4 6 8 10 11 13 15 16 18 20 22 23 25 26 27 28 28 28 28 28 28 26 25 24 23 21 18 16 13 11 10 11 14 17 21 23 27
12 11 11 11 12 11 10 8 6 5 4 4 5 6 8 9 10 12 14 16 18 20 21 23 25 26 27 28 28 28 28 28 28 27 26 25 24 21 19 17 14 11 8 7 9 13 16 20 23
12 11 11 11 12 12 11 9 7 6 5 4 5 5 7 8 10 12 14 15 17 19 21 22 24 25 26 27 27 27 28 28 28 27 27 26 25 22 20 19 15 12 7 4 4 8 12 15 19
12 12 12 11 12 12 12 10 8 7 5 5 5 5 6 8 9 11 13 15 16 18 20 22 23 25 25 26 27 27 28 28 27 27 27 27 26 24 22 20 17 13 9 5 2 4 8 12 15
12 13 12 12 12 13 12 10 10 7 6 6 5 5 6 8 9 11 13 14 16 18 19 21 23 24 25 26 27 27 27 28 27 27 27 27 27 25 24 22 18 15 12 8 3 2 5 8 11

GEFSSGP_500_meanwind_114.txt.gz
Wind_Speed
8 6 5 4 5 5 5 5 6 6 7 7 8 9 9 9 9 9 9 10 11 11 11 11 12 12 13 13 14 15 15 16 16 16 17 17 18 18 18 18 19 19 18 18 17 16 15 14 13
7 6 5 4 5 5 5 6 6 7 8 8 9 10 10 10 10 10 11 11 11 12 12 12 13 14 14 15 15 16 17 17 18 18 19 19 20 20 20 20 20 20 20 19 19 18 16 15 14
8 8 6 5 5 6 6 6 7 7 8 9 10 10 10 10 10 11 11 11 11 12 13 14 14 15 16 16 17 17 18 18 19 19 19 21 21 22 22 23 22 22 22 21 20 19 18 16 14
8 7 7 6 6 7 7 8 9 9 9 9 10 10 10 10 10 10 11 11 12 13 13 14 14 15 16 17 17 18 19 19 20 21 21 22 23 24 24 24 25 24 23 23 22 20 18 17 15
9 8 8 7 8 8 8 9 9 9 9 10 10 10 10 10 10 11 11 11 12 13 13 13 14 15 16 17 17 19 20 21 22 22 23 24 25 26 27 26 25 25 25 24 23 22 20 18 17
10 9 9 9 8 9 9 9 9 9 9 9 9 9 10 11 11 11 12 12 12 13 13 14 14 15 16 16 17 18 20 21 22 23 24 25 26 27 28 28 27 27 26 25 25 24 22 20 19
10 10 10 10 10 11 10 9 10 9 9 9 9 9 10 11 11 11 11 12 12 13 13 14 15 15 16 17 18 18 19 20 21 23 25 26 27 28 28 29 29 28 27 26 25 25 23 22 20
11 11 11 11 11 11 10 11 10 9 9 8 9 9 10 10 11 11 11 11 13 13 14 14 15 15 16 17 17 18 18 19 20 22 23 25 27 28 28 28 29 29 29 28 27 26 25 23 21
12 12 13 13 12 12 11 11 10 9 9 8 9 9 9 10 10 10 11 12 13 14 15 16 16 16 16 17 17 18 19 19 20 21 22 24 25 27 28 28 28 28 29 29 29 28 26 25 24
13 13 13 13 13 13 12 11 10 9 8 7 8 8 9 9 10 11 12 12 13 14 15 16 16 16 17 17 18 18 19 20 21 21 22 23 24 25 27 28 28 28 29 29 30 30 28 27 26
15 15 14 14 14 13 12 10 9 8 7 7 7 8 8 9 9 10 11 12 13 14 15 16 16 17 17 18 19 19 20 20 21 22 22 22 23 24 25 27 28 28 28 28 29 30 29 28 28
16 15 15 15 14 13 11 10 9 7 7 7 7 7 8 8 9 10 11 13 14 15 15 16 16 17 18 18 19 20 20 21 21 21 21 22 22 23 25 26 27 28 29 29 29 29 29 28 29
16 15 15 14 13 13 12 10 9 8 7 6 7 7 7 8 8 10 12 13 14 14 15 16 17 18 19 20 20 21 21 21 21 21 21 21 22 22 23 25 27 28 28 29 30 30 30 29 30
17 16 15 14 13 13 12 10 9 7 6 6 6 7 7 8 8 10 12 13 14 15 16 17 18 19 20 21 21 22 22 22 22 21 21 21 21 21 22 23 25 27 28 29 30 31 31 30 29
18 16 15 14 14 13 12 10 8 7 6 6 6 6 6 7 8 10 11 13 14 16 17 18 19 20 21 22 22 23 23 23 22 21 21 20 20 20 21 22 23 25 27 28 30 31 31 31 30
18 16 15 14 13 13 11 10 8 7 7 6 6 6 6 6 7 9 11 13 15 16 17 18 20 21 22 23 23 24 24 24 23 22 21 20 19 19 20 21 22 23 25 27 29 30 30 31 32
18 16 14 14 14 13 12 10 9 8 7 6 6 6 6 6 7 9 11 13 15 16 18 19 21 22 23 23 24 25 25 24 23 22 22 21 20 19 19 19 20 21 23 25 27 29 30 31 32
18 15 14 13 13 13 12 10 9 8 7 7 6 6 6 5 6 8 11 13 15 16 18 20 21 23 24 24 25 26 26 25 24 23 22 21 20 19 19 19 18 19 20 23 25 27 28 30 32
17 15 14 14 13 13 12 10 9 8 8 7 7 6 6 5 6 8 10 13 15 16 18 20 22 23 24 25 26 26 26 26 25 24 23 21 20 19 18 18 17 17 19 21 23 25 28 29 31
16 15 14 13 13 12 12 10 9 9 8 8 7 6 5 5 6 8 10 12 14 16 18 20 22 24 25 25 26 26 26 26 26 24 23 22 21 19 18 17 16 16 17 19 21 23 26 29 30
16 14 14 13 13 13 12 10 10 9 8 8 7 6 5 5 6 7 10 12 14 16 18 20 22 24 25 25 25 26 26 26 26 25 24 23 21 20 18 16 15 14 15 17 19 22 24 27 29
15 15 15 14 13 12 11 10 9 9 8 8 7 6 5 4 5 7 9 11 14 16 18 20 22 24 25 25 26 26 26 27 26 26 24 23 22 20 18 16 14 13 13 15 16 19 22 25 28
16 15 15 14 13 12 11 10 9 8 8 8 7 6 5 4 5 7 9 11 14 16 18 20 22 24 24 25 26 26 26 27 26 26 25 24 23 21 18 16 14 12 11 12 14 17 20 23 26
16 15 15 14 13 12 11 10 9 9 9 8 7 7 6 5 5 7 9 11 13 15 18 20 22 24 24 25 26 26 27 27 27 26 25 25 23 21 19 16 14 12 10 10 11 13 16 20 23
16 16 15 14 13 12 11 10 9 9 9 8 8 7 6 5 6 7 9 11 13 15 17 20 22 23 24 25 26 26 27 27 27 26 26 25 25 23 20 17 15 12 10 9 10 11 14 17 21
16 15 15 14 13 11 11 10 9 10 9 8 7 7 6 5 5 7 9 11 13 14 17 19 21 23 24 25 25 26 27 27 27 27 26 25 25 24 21 19 15 13 11 9 9 9 11 15 18
15 15 15 14 13 12 11 10 10 10 9 8 7 7 6 6 6 7 9 10 12 14 16 18 20 22 24 25 25 26 26 27 27 27 26 25 25 24 22 20 17 15 12 10 8 8 10 12 16
13 14 14 14 13 13 11 11 10 10 10 8 8 7 6 6 6 7 9 10 12 14 15 18 20 21 23 24 25 25 26 26 27 27 27 26 24 23 23 21 19 17 14 11 8 7 8 11 13
13 13 13 14 14 13 12 11 11 10 10 9 8 8 7 7 7 7 8 10 11 13 15 17 19 20 22 23 25 25 26 26 26 27 27 26 25 24 22 21 20 19 16 12 9 7 5 7 10
13 13 13 13 13 13 12 10 11 11 10 9 9 8 8 7 7 7 8 10 11 12 14 16 18 19 21 22 23 25 25 26 26 26 26 26 25 24 23 22 21 20 17 15 11 8 5 5 7

GEFSSGP_500_meanwind_120.txt.gz
Wind_Speed
7 7 7 5 4 4 4 4 4 4 5 5 6 6 6 6 6 7 7 8 8 9 9 9 9 10 11 11 12 13 13 13 14 15 16 17 16 17 17 17 18 17 17 17 16 16 15 15 14
6 7 7 6 5 5 5 5 5 5 6 7 7 7 6 6 6 6 7 7 8 9 10 9 10 11 12 12 13 14 15 15 16 16 17 17 18 18 18 19 19 19 18 18 18 17 17 16 16
6 7 7 6 5 5 5 5 6 6 6 7 7 7 6 6 6 7 7 8 9 9 9 10 11 11 12 12 13 14 15 16 17 18 18 18 19 20 20 20 21 21 21 20 20 19 18 18 17
7 7 7 6 6 6 6 6 6 6 7 7 7 6 7 7 7 8 8 9 9 9 9 9 10 11 12 13 14 15 16 17 18 19 19 19 19 20 21 22 22 22 22 22 22 21 21 20 19
7 8 7 7 6 7 6 7 7 7 7 7 6 7 7 7 8 8 8 8 8 8 8 9 9 10 11 12 13 14 15 16 17 18 18 19 21 21 22 23 23 23 23 23 24 23 22 21 20
8 8 7 7 7 7 7 7 7 7 7 6 6 7 6 7 7 8 7 7 8 8 8 9 9 10 11 12 13 13 14 16 17 17 19 20 21 22 23 24 25 25 25 24 24 24 24 23 21
10 9 8 8 9 8 7 7 8 8 7 7 6 6 6 7 7 7 7 7 8 8 9 9 10 10 11 11 12 13 14 15 16 17 18 20 21 22 23 24 25 25 25 26 26 25 24 23 22
11 10 9 9 9 9 8 8 8 8 8 7 7 7 7 6 6 6 6 7 8 8 9 10 10 11 12 12 12 13 14 14 15 17 18 19 20 21 22 24 25 25 25 25 26 25 25 25 23
12 11 11 10 9 9 9 9 8 8 8 8 7 7 7 6 6 6 6 7 8 9 10 11 11 12 13 13 14 14 15 15 16 17 18 19 20 21 22 23 24 24 25 25 25 25 26 25 24
13 12 11 11 10 10 10 9 8 8 9 9 8 8 8 7 6 6 7 7 9 9 10 11 12 13 13 14 14 15 16 16 17 17 18 19 20 21 21 22 23 24 25 25 25 25 26 25 25
14 13 13 12 11 10 10 10 9 9 9 9 8 8 7 6 6 6 7 8 9 10 11 12 12 13 14 14 15 16 16 17 18 19 19 19 20 20 21 21 22 23 24 25 25 25 25 25 25
15 14 13 12 11 10 10 10 9 9 9 9 8 7 7 6 6 7 7 8 9 10 11 12 13 14 14 15 15 16 17 18 19 20 20 19 20 20 20 21 21 22 23 24 25 26 25 25 26
16 15 14 13 12 11 11 10 10 10 9 9 8 8 7 7 6 6 7 8 9 10 11 12 12 14 15 15 16 17 18 18 19 19 20 20 19 19 20 20 20 21 23 24 25 26 27 27 27
16 15 15 14 13 12 11 11 10 9 9 9 8 8 7 7 6 7 7 8 9 10 11 12 13 14 15 16 17 17 18 19 19 20 20 20 20 20 19 19 20 20 21 23 25 26 27 28 28
16 15 15 14 13 12 12 11 10 10 10 9 8 8 7 7 7 7 7 8 9 10 11 12 13 15 16 16 17 18 19 20 20 21 21 20 20 20 19 19 19 20 21 22 24 26 28 29 29
16 15 14 14 13 13 12 11 11 10 10 9 8 8 8 8 7 7 7 8 9 9 11 12 14 15 16 17 18 19 19 20 21 21 21 20 20 19 19 19 19 19 19 20 22 24 26 28 30
16 15 15 15 14 13 12 11 11 10 10 9 8 8 8 8 7 7 8 8 9 10 11 13 14 16 17 17 18 19 20 20 21 21 21 20 20 19 18 18 17 17 18 19 21 23 25 27 29
16 15 15 15 15 14 13 12 11 11 10 9 8 8 8 8 8 7 8 8 9 10 11 13 15 16 17 17 18 19 20 21 21 22 21 20 19 18 18 17 16 16 17 18 19 21 23 25 27
17 16 15 15 15 14 12 11 11 11 10 9 8 8 8 8 8 8 8 8 9 10 11 13 15 17 17 18 18 19 20 21 22 22 22 20 19 18 17 16 15 14 14 15 17 19 21 24 26
16 15 15 15 15 13 11 11 11 10 10 9 9 9 8 8 8 8 8 8 8 9 11 13 15 16 18 18 19 19 20 21 22 22 22 21 20 19 17 16 14 13 13 14 15 17 19 21 25
15 15 15 15 14 12 10 10 10 10 10 9 9 8 8 8 8 7 7 7 8 9 11 13 14 16 18 18 19 19 20 21 22 22 22 21 20 19 17 15 14 13 12 12 13 15 17 19 22
15 15 14 14 12 11 10 10 10 10 10 9 9 8 8 8 7 7 7 7 8 9 11 12 14 16 18 19 19 20 21 21 22 22 22 22 21 20 18 16 14 13 11 10 11 13 15 17 19
14 14 13 12 11 10 10 10 10 10 10 9 8 8 8 7 7 7 7 7 8 9 10 12 14 16 18 19 19 20 21 21 22 22 22 22 21 20 18 16 14 11 10 9 10 11 13 16 17
14 13 13 11 10 10 9 9 10 10 10 9 8 8 8 7 7 7 7 8 8 9 10 12 13 15 17 19 20 20 21 21 22 22 22 22 21 20 19 17 14 11 9 8 8 9 12 13 16
14 12 11 10 10 10 9 9 9 10 10 9 9 8 8 8 7 7 7 8 8 9 10 11 13 15 16 18 20 21 21 22 22 22 22 21 21 20 19 17 14 12 10 7 6 7 9 11 14
12 11 11 10 10 10 9 10 10 10 10 10 9 8 8 8 8 7 7 7 8 9 10 11 13 14 16 18 19 21 22 22 22 23 22 21 20 20 19 18 15 13 11 8 7 6 7 9 12
11 10 10 10 10 10 9 9 10 11 11 11 10 9 9 8 8 8 7 7 8 9 10 11 12 14 15 17 19 20 21 22 22 22 22 22 21 20 19 18 16 14 12 9 7 6 6 7 9
11 10 10 10 9 8 9 10 11 11 12 11 11 10 9 9 9 8 7 7 8 9 9 10 12 13 15 16 18 19 21 22 22 22 22 22 21 20 19 18 17 15 13 10 8 6 5 6 8
10 9 9 9 9 8 9 11 11 12 12 12 12 11 10 10 9 8 8 8 8 9 9 10 11 13 14 15 17 18 20 21 21 21 22 22 21 21 20 19 18 16 14 12 9 6 4 4 6
10 10 9 9 9 9 10 11 11 12 12 12 12 12 11 11 10 9 9 8 8 9 9 10 11 13 14 15 16 17 18 20 21 21 21 21 21 21 20 20 19 17 15 13 10 7 5 3 4

GEFSSGP_500_meanwind_126.txt.gz
Wind_Speed
7 7 8 8 8 7 7 6 5 5 6 6 7 7 7 7 7 8 9 9 9 10 10 11 11 12 12 12 12 12 13 13 13 14 14 15 15 17 17 18 18 18 19 18 18 17 17 16 16
7 8 8 8 8 7 7 6 6 6 6 7 7 8 7 7 8 8 9 9 9 10 10 10 10 11 11 12 12 12 13 13 14 14 15 15 16 17 17 18 19 20 20 20 19 19 18 18 17
8 8 8 8 8 8 8 7 7 7 7 7 7 7 7 8 8 9 9 9 9 9 9 10 10 10 10 11 12 13 13 14 15 15 16 16 17 18 19 19 19 20 20 21 21 20 20 19 18
8 8 8 8 9 9 9 8 8 8 8 8 8 7 8 8 9 9 9 9 9 9 9 8 9 9 9 10 11 13 13 14 15 15 16 17 17 17 18 19 19 19 20 20 21 21 22 21 20
9 9 9 9 10 10 10 9 10 9 8 9 8 8 8 8 8 9 9 9 8 8 8 8 8 9 10 11 11 12 13 14 14 15 15 16 17 18 18 18 19 20 20 21 21 21 23 23 22
10 10 10 10 10 11 10 9 9 10 9 9 9 8 8 8 9 9 9 8 8 8 8 8 9 10 10 11 12 12 12 13 14 15 15 15 16 17 18 18 19 20 21 21 21 21 22 24 24
12 11 11 11 11 11 10 9 9 10 10 9 9 8 8 8 9 9 8 8 8 8 8 9 10 10 11 11 12 12 13 13 14 15 15 15 16 17 18 18 19 20 20 21 21 21 21 22 24
13 13 12 12 11 11 11 10 10 9 9 8 9 8 7 8 9 9 8 8 8 8 9 9 10 11 11 12 12 12 13 14 14 15 16 16 17 18 18 19 19 20 20 21 22 22 22 22 23
15 14 13 13 12 12 12 11 10 9 9 8 8 8 8 8 9 9 9 8 8 8 9 10 11 12 12 13 13 13 14 15 16 16 17 18 18 19 19 19 20 20 20 21 22 22 22 22 23
16 15 13 13 14 14 12 12 10 10 10 8 8 8 8 9 9 9 9 8 8 8 9 11 12 13 14 14 14 15 15 16 17 17 18 19 19 19 19 19 20 20 20 21 22 22 22 23 23
17 15 14 14 14 14 13 12 11 10 10 8 8 8 9 9 9 9 8 8 8 9 10 11 12 13 14 15 16 16 17 18 18 19 19 19 20 20 20 20 20 20 20 20 21 22 23 23 23
18 16 17 16 15 14 13 12 11 10 10 9 9 9 9 9 9 9 8 8 8 9 10 11 12 14 15 15 16 17 18 19 19 20 20 20 20 20 20 21 20 21 21 20 21 22 22 23 23
19 17 16 16 15 14 13 11 11 11 10 10 10 9 9 9 9 9 8 8 9 9 10 12 13 14 15 16 17 18 18 19 20 20 21 21 22 22 21 21 21 21 21 21 21 22 22 23 23
19 18 16 15 15 14 14 12 11 11 10 10 10 10 9 8 8 8 8 8 8 9 10 12 13 14 16 17 18 18 19 19 20 21 21 22 22 22 21 21 21 20 20 20 20 21 22 23 23
20 19 18 16 15 13 14 13 12 11 9 10 10 9 9 8 8 8 8 8 9 10 11 12 13 15 16 18 19 19 19 20 20 21 22 22 22 22 22 21 20 20 20 19 19 20 21 22 23
18 17 17 16 15 13 13 13 13 11 10 10 9 9 9 8 8 8 8 8 9 10 11 12 13 15 17 18 19 19 20 20 21 21 22 22 22 22 21 21 20 19 18 18 18 18 20 21 22
17 16 15 14 14 13 13 13 12 11 10 10 10 9 9 8 7 8 7 8 9 10 11 12 14 15 17 18 19 19 20 20 21 21 22 22 22 22 21 20 19 18 18 17 17 17 18 20 22
15 14 14 13 12 13 13 12 12 12 10 10 10 9 8 8 7 8 8 8 9 10 11 12 14 15 17 18 19 20 20 20 21 21 22 22 22 21 21 20 19 18 17 16 16 16 17 19 20
15 14 13 12 13 12 12 12 11 12 10 9 9 9 9 8 7 7 7 8 9 10 11 12 14 15 17 18 19 20 20 20 21 21 22 22 22 21 21 20 19 18 17 15 15 15 16 18 19
15 14 15 14 13 11 10 10 10 10 10 9 9 9 9 9 8 7 8 8 9 10 11 12 13 15 16 17 19 20 20 21 21 21 22 22 22 21 21 20 19 18 16 15 14 14 15 16 18
14 14 14 13 12 11 9 8 8 8 9 9 8 9 9 9 9 8 8 8 9 10 11 12 13 14 15 17 19 20 21 21 21 21 22 22 22 22 21 20 19 17 15 14 13 13 14 15 16
13 12 13 12 11 9 8 7 9 8 9 8 8 8 9 9 9 8 8 8 9 9 10 12 13 14 15 17 18 20 21 21 21 22 22 22 22 21 21 20 19 17 15 13 12 12 12 13 14
13 11 11 10 9 7 6 6 9 10 10 8 7 8 8 9 9 8 8 8 9 9 10 12 13 14 16 17 18 20 21 21 22 22 22 22 21 21 21 20 20 17 15 13 12 11 11 11 13
10 9 9 6 5 5 5 6 8 10 11 8 8 9 9 9 9 8 8 9 9 9 10 11 13 14 15 17 18 19 20 21 22 21 22 22 21 21 21 20 19 17 16 14 11 10 9 9 11
8 8 7 5 3 3 4 7 9 11 10 10 9 9 9 9 9 9 8 9 9 9 10 11 12 14 15 16 18 19 20 21 21 22 22 22 22 21 21 21 19 17 16 14 11 9 8 8 9
8 7 7 5 3 3 4 6 10 10 9 11 11 10 10 10 10 9 9 9 9 9 10 11 12 14 15 16 17 18 20 21 22 22 22 22 22 21 21 21 20 18 16 14 12 9 7 7 8
7 7 6 4 3 2 2 7 11 10 10 11 11 11 11 11 10 10 9 9 9 9 10 11 12 13 15 16 17 18 19 20 21 22 22 22 22 22 21 21 19 18 16 14 12 9 7 6 7
7 7 7 5 4 2 3 6 11 12 10 10 11 11 11 11 11 10 10 10 10 10 10 11 12 13 15 16 17 18 19 20 21 21 22 22 22 22 22 21 19 18 16 14 12 10 7 6 6
6 6 7 6 5 4 4 7 12 14 13 12 12 12 12 12 12 11 11 11 10 10 11 11 12 13 14 16 16 17 18 19 20 20 21 22 22 22 22 21 19 18 17 15 13 10 8 6 5
6 8 8 9 7 7 7 10 13 15 13 13 13 13 13 12 12 12 12 11 11 11 11 11 12 13 14 15 16 17 18 18 19 20 20 21 21 21 22 21 19 18 17 16 14 11 9 7 5

GEFSSGP_500_meanwind_132.txt.gz
Wind_Speed
5 5 4 5 5 5 5 3 4 3 1 2 2 3 4 4 4 4 4 5 5 5 5 5 6 7 7 7 8 8 9 9 10 11 12 13 14 14 16 17 17 17 18 19 19 19 20 19 18
6 5 5 5 6 6 5 4 5 5 2 2 2 2 3 3 3 4 4 5 5 5 5 5 5 6 6 6 7 8 9 10 11 12 12 13 14 15 15 16 17 17 18 19 20 20 21 21 19
7 6 5 7 7 7 6 5 5 5 3 3 2 3 2 2 3 4 4 4 5 5 5 5 4 5 5 6 6 7 8 9 10 11 12 13 13 14 15 16 17 17 18 19 20 20 21 21 20
8 8 7 8 9 7 7 6 6 4 4 4 3 3 2 2 2 3 4 5 5 5 5 4 4 4 5 5 6 7 7 8 9 10 11 11 12 13 14 15 16 17 17 18 19 20 20 21 21
10 9 9 10 11 9 8 7 5 5 3 4 4 3 3 2 2 3 4 5 5 5 4 4 4 4 5 6 6 7 7 8 9 9 10 11 12 13 14 14 15 16 17 18 20 20 20 21 22
11 11 11 11 11 10 9 6 5 4 4 4 4 3 4 2 2 3 4 4 4 4 4 4 4 5 5 6 7 7 8 9 9 10 11 11 12 13 14 15 15 16 16 18 19 20 21 21 21
13 13 13 13 12 11 9 6 6 4 5 5 5 4 4 3 2 3 4 4 4 4 4 4 4 5 6 7 7 8 9 10 10 11 12 13 14 14 15 15 16 16 17 17 19 20 21 21 22
16 15 14 14 12 11 9 8 7 6 5 5 5 5 4 3 3 3 4 4 4 4 4 4 5 5 6 7 8 9 10 10 11 12 12 13 14 15 15 16 16 16 17 17 18 19 20 21 22
17 16 16 14 14 11 9 9 8 6 5 5 5 5 4 3 3 4 4 4 4 4 4 4 5 5 6 8 8 10 11 11 12 13 13 14 15 15 15 16 16 17 17 18 18 19 20 21 22
17 17 16 16 15 12 11 9 8 7 6 6 5 5 4 4 4 4 4 4 4 4 5 5 5 6 7 8 9 11 12 12 13 14 14 15 15 16 16 16 17 17 17 17 18 19 20 21 21
19 17 17 16 15 13 11 9 8 8 6 6 6 5 4 4 4 4 4 4 4 4 5 5 5 6 7 9 10 12 13 14 14 15 15 15 16 16 16 16 17 16 16 17 18 19 19 21 21
20 19 18 16 14 12 11 10 9 8 7 7 6 6 5 5 5 5 4 4 3 4 5 5 6 7 8 10 11 12 13 14 15 15 16 16 16 16 16 16 16 17 17 17 18 18 19 21 22
20 19 18 16 15 13 12 11 9 8 8 8 7 6 5 5 5 5 5 4 3 4 5 6 6 8 9 10 12 13 14 15 15 16 16 17 17 17 17 17 16 16 16 17 17 18 19 20 21
19 19 17 16 15 14 13 12 10 9 9 8 8 6 6 6 5 4 4 4 4 4 5 6 7 8 9 11 13 14 14 15 16 17 17 18 18 18 17 17 17 16 16 16 16 17 18 19 21
20 19 18 16 15 13 13 13 12 10 9 9 8 7 6 6 5 4 4 4 4 4 5 6 7 9 10 11 13 14 15 16 17 17 18 19 19 18 18 18 18 17 17 16 16 17 18 19 20
19 16 15 14 14 14 13 11 11 10 9 9 8 7 6 5 4 4 4 4 4 4 5 6 8 9 10 12 14 15 16 17 18 18 18 19 19 18 18 18 18 18 17 17 17 17 17 18 19
16 14 13 13 13 14 12 9 8 10 8 7 7 6 5 4 4 4 4 4 4 4 5 6 8 9 11 13 14 15 16 17 18 19 19 19 19 19 19 19 19 18 18 17 17 17 17 17 18
14 13 12 12 13 13 11 8 8 9 8 7 7 6 5 4 4 5 5 5 4 4 5 6 8 9 11 13 14 15 16 17 18 19 19 19 20 19 19 19 19 18 18 17 17 16 16 17 18
12 11 11 11 11 10 8 7 8 9 8 8 7 6 5 5 5 5 5 5 5 5 5 6 7 9 11 13 14 15 16 17 18 19 19 19 20 19 19 19 19 18 18 16 16 15 15 16 18
10 10 9 10 8 7 7 6 6 7 7 7 7 6 6 5 5 5 5 5 5 5 6 6 7 9 11 13 14 15 16 17 18 19 19 19 20 20 19 19 19 18 17 16 15 14 14 15 17
8 8 10 9 8 7 6 5 5 5 6 6 5 5 5 5 5 5 5 5 5 5 6 6 7 9 11 13 14 15 16 17 18 18 19 19 19 20 19 19 20 18 17 15 14 13 12 13 15
7 7 8 7 6 6 5 4 4 4 4 4 4 4 3 4 5 5 5 5 5 6 6 6 7 9 11 12 14 15 16 17 18 18 19 19 20 20 20 20 19 18 17 15 14 12 11 11 13
6 8 7 6 5 5 4 4 3 3 3 3 3 3 3 4 5 5 5 5 6 6 6 6 7 8 11 12 14 15 16 17 18 18 19 19 20 20 20 20 19 18 17 15 13 11 10 10 11
6 6 5 5 5 4 4 3 2 1 2 3 3 3 4 4 4 5 5 5 6 6 6 7 8 9 10 12 13 14 15 16 17 18 19 19 20 20 20 20 19 18 16 15 13 11 9 8 9
5 5 5 6 6 5 4 2 2 1 0 1 3 4 4 4 4 5 5 6 6 6 6 7 8 9 10 12 13 14 15 16 17 18 19 19 19 19 19 19 19 17 16 14 13 11 8 7 7
5 5 5 5 5 5 4 2 1 1 2 2 3 4 4 5 5 5 6 6 6 7 7 7 8 9 10 12 13 14 14 15 16 18 18 19 19 19 19 19 18 17 16 14 12 10 8 6 5
5 5 4 5 5 5 4 2 0 1 2 3 3 4 4 5 5 6 7 7 7 7 7 8 9 9 10 11 12 13 14 15 16 17 18 18 18 19 18 18 18 17 16 15 13 10 8 6 5
4 4 4 5 5 5 4 3 2 3 3 3 3 4 4 5 6 7 8 8 8 8 8 8 9 9 10 11 12 13 14 15 16 16 17 18 18 18 18 18 18 18 17 16 14 11 9 7 5
3 3 3 4 5 5 6 4 5 5 5 5 4 5 5 5 7 7 8 9 9 9 9 9 9 10 10 11 12 13 13 14 15 16 16 17 18 18 18 18 18 18 17 16 14 12 10 8 6
3 3 4 5 5 6 7 6 7 6 6 6 6 6 6 7 7 8 8 9 10 10 10 10 10 10 11 11 12 13 13 14 14 15 16 16 17 18 18 18 18 17 17 15 14 13 11 8 6

GEFSSGP_500_meanwind_138.txt.gz
Wind_Speed
7 7 7 6 6 6 6 5 5 4 3 2 3 2 2 2 2 2 2 2 2 3 3 4 4 5 5 5 6 6 6 6 7 7 8 9 10 11 12 13 13 14 15 15 15 16 16 16 16
8 8 7 7 7 7 6 5 5 4 2 2 2 2 2 2 2 1 2 2 2 2 3 4 4 4 5 5 5 6 6 7 7 8 8 9 10 12 13 14 14 15 15 16 16 16 16 16 16
9 9 8 8 8 7 6 5 5 4 3 3 2 3 2 2 2 2 2 2 2 2 3 3 4 4 4 4 4 5 5 6 7 8 8 9 10 11 12 13 14 15 15 16 17 17 17 16 16
11 10 10 10 8 8 7 5 4 4 4 4 4 3 2 3 3 2 2 3 3 3 3 3 3 3 3 4 4 4 5 6 6 7 8 9 10 11 12 13 14 15 15 15 16 17 17 17 17
13 12 12 11 10 9 8 6 5 6 5 5 4 3 2 3 3 3 3 3 3 2 3 2 2 2 3 3 4 5 5 6 7 8 9 10 11 12 13 13 14 15 15 16 16 16 16 17 17
15 14 13 12 11 10 9 7 7 7 6 4 4 3 3 3 3 3 3 3 3 2 2 2 2 2 3 4 5 5 6 7 8 8 9 10 11 12 13 14 14 15 15 16 16 17 17 17 17
16 16 15 13 13 12 11 9 8 7 6 5 4 4 3 4 3 3 3 3 2 2 2 2 2 3 3 4 5 6 7 8 8 9 10 11 11 12 13 14 15 15 15 15 16 16 17 17 17
17 17 16 15 14 13 12 11 9 7 7 6 5 4 4 4 5 4 4 3 3 3 2 2 3 4 4 5 6 7 7 8 9 10 11 11 12 12 13 13 14 14 15 15 16 16 17 17 17
19 18 17 16 15 14 13 11 10 9 8 7 7 6 6 5 5 4 4 4 4 3 3 3 4 4 5 6 7 7 8 9 10 10 11 12 13 13 13 13 14 14 14 15 16 16 16 17 17
19 18 18 18 17 16 14 12 11 10 9 8 8 7 7 6 5 5 4 4 4 4 3 3 4 5 5 6 7 8 8 9 10 11 12 13 13 13 14 14 14 14 15 15 16 16 16 17 17
19 19 19 18 18 18 15 14 12 11 10 9 9 8 8 7 6 5 5 4 4 4 3 3 4 5 5 6 7 8 9 10 11 11 12 13 13 14 14 14 14 15 15 15 16 16 16 17 17
19 19 19 19 18 17 15 14 13 12 11 9 9 9 8 8 7 6 5 5 4 4 4 4 5 5 6 7 8 9 9 10 11 12 13 13 14 14 14 14 14 15 15 15 15 16 16 16 17
20 19 19 19 18 18 15 14 13 12 11 10 10 9 9 8 7 6 6 6 5 5 5 5 5 6 6 7 8 9 10 11 12 13 13 14 14 15 15 15 14 14 15 15 15 15 16 16 17
19 18 18 18 18 18 16 13 12 12 11 10 11 10 8 8 7 7 7 6 6 5 5 5 6 6 7 8 9 10 10 11 13 13 14 14 15 15 15 15 15 15 15 15 16 16 16 16 17
17 17 17 17 16 16 16 13 12 11 11 11 11 10 10 9 8 8 7 7 6 6 6 6 6 6 7 8 9 10 11 12 13 13 14 15 16 16 16 16 16 16 16 16 16 16 16 16 17
15 15 15 15 14 14 14 12 11 11 11 11 10 10 10 9 9 8 8 8 7 6 6 6 6 6 7 8 9 10 11 12 13 14 15 16 16 16 16 16 16 16 17 17 17 17 16 16 17
13 13 13 13 12 12 12 11 10 10 10 10 10 9 9 9 9 9 8 8 7 7 7 6 6 6 7 8 9 10 11 12 14 15 16 16 16 17 17 17 17 17 17 17 17 16 16 16 17
12 12 11 11 10 11 11 10 10 9 10 10 10 9 9 9 9 9 8 7 7 7 7 6 6 7 8 9 10 11 12 13 14 15 16 17 17 17 17 17 17 17 17 17 16 16 16 16 17
11 11 10 9 9 9 10 9 9 10 10 10 10 10 9 9 9 9 8 8 8 7 7 6 6 7 7 8 10 11 12 13 14 15 16 17 17 17 17 17 17 17 17 16 16 16 16 16 16
9 9 9 9 8 8 8 8 8 9 9 9 9 9 9 9 9 9 8 8 8 8 7 6 6 7 8 8 10 11 12 13 14 15 16 17 17 17 18 18 17 17 17 16 16 15 15 15 15
7 8 8 8 6 7 7 6 6 7 8 9 9 9 9 9 8 8 8 8 8 8 7 7 6 7 8 9 10 11 12 13 15 16 17 17 17 17 18 18 18 17 17 16 15 15 14 14 14
7 7 7 7 6 5 5 5 6 6 7 8 8 9 9 9 9 8 8 8 8 8 7 7 7 7 8 9 10 11 12 14 15 16 17 17 18 18 18 18 18 17 16 15 15 14 13 12 12
6 6 6 6 6 6 5 5 5 5 6 7 8 8 9 9 9 8 8 8 8 7 7 7 7 8 8 9 10 11 12 14 15 16 17 17 18 18 18 18 18 17 16 15 15 14 13 11 10
6 6 6 5 6 6 6 5 5 4 5 6 8 8 8 8 8 7 7 7 7 7 7 7 8 8 9 9 10 11 12 14 15 16 17 17 18 18 17 18 18 17 16 15 15 14 13 11 10
6 6 6 6 6 6 6 6 5 5 5 5 7 7 7 7 7 6 6 7 7 7 8 8 8 8 9 9 10 12 13 13 14 15 16 17 18 18 17 17 17 17 16 15 15 14 13 11 9
6 6 5 5 5 5 6 7 5 4 4 4 5 6 7 7 7 7 7 7 7 7 7 7 7 8 8 9 10 12 13 13 14 15 16 17 17 17 17 17 17 17 16 15 15 14 13 11 9
6 5 4 4 4 5 5 6 5 4 3 3 4 5 6 6 7 6 7 7 7 7 7 7 7 8 9 10 11 12 13 13 14 15 16 16 17 17 17 17 17 17 16 15 15 14 13 11 9
4 4 4 4 4 5 5 4 5 4 3 3 4 5 6 6 6 6 7 7 7 7 8 8 8 8 9 10 11 12 13 13 14 15 15 16 16 16 16 17 16 16 16 15 14 14 13 12 10
3 3 3 3 3 4 4 3 4 4 4 4 4 5 6 6 7 7 7 7 7 8 8 9 9 9 9 10 11 12 13 13 14 14 15 15 16 16 16 16 16 15 15 15 14 14 13 11 10
2 2 2 2 3 3 3 3 4 5 6 6 6 7 7 7 8 8 8 8 9 9 9 10 10 10 10 11 11 11 12 13 14 14 14 15 15 15 15 15 15 15 15 14 14 14 13 12 9

GEFSSGP_500_meanwind_144.txt.gz
Wind_Speed
7 6 5 5 4 3 3 2 2 2 2 2 2 3 3 4 4 4 4 3 3 2 2 2 2 2 2 2 3 4 4 5 5 5 6 6 7 7 8 10 10 11 11 11 11 11 11 11 11
8 7 6 6 5 4 4 3 3 3 2 2 3 3 3 4 4 4 3 3 3 2 2 2 2 2 2 3 3 4 4 4 5 5 6 6 7 7 8 9 10 11 11 12 12 12 12 12 12
9 8 7 6 6 5 5 5 4 3 3 3 3 3 3 4 4 4 4 3 3 2 2 2 2 2 2 3 3 4 4 5 5 6 6 6 7 8 9 10 10 11 11 12 12 12 12 12 13
11 10 9 8 7 7 6 6 4 4 4 3 3 4 4 4 4 4 3 3 2 2 2 2 2 2 2 2 2 3 4 5 5 6 6 7 8 9 10 10 11 11 12 12 12 12 13 13 13
12 11 10 9 9 8 8 7 6 5 5 4 4 4 4 4 4 4 3 3 2 2 2 2 1 1 1 1 2 3 4 5 5 6 7 8 9 9 10 11 11 12 12 12 13 13 13 13 13
14 13 12 10 9 9 9 8 7 7 7 6 6 5 4 4 4 4 3 3 3 2 1 1 1 1 1 2 3 3 4 5 5 6 7 8 9 9 10 11 11 12 12 12 12 13 13 13 14
15 14 13 12 11 11 10 9 8 8 8 7 6 5 4 5 5 4 4 4 3 2 1 1 1 1 2 3 4 4 5 5 6 7 7 8 9 10 11 12 12 12 12 12 12 12 12 13 14
16 15 14 13 12 12 11 10 9 9 8 7 7 6 5 4 5 4 4 4 3 3 2 2 2 2 3 3 4 5 5 6 7 7 8 9 10 11 12 12 13 13 13 13 13 12 12 13 13
16 16 15 14 13 12 11 11 10 9 8 8 7 7 6 5 5 5 5 4 4 3 3 3 3 3 4 4 5 5 6 7 7 8 9 10 11 11 12 12 13 13 14 14 14 13 13 13 13
17 16 15 15 14 13 12 12 11 9 9 8 8 8 8 7 7 6 5 5 4 4 4 3 3 4 4 5 5 6 7 7 8 9 10 10 11 11 12 12 13 13 14 14 14 14 14 13 14
16 16 16 15 14 13 13 13 12 10 10 9 9 9 8 8 8 7 6 6 5 5 5 4 4 4 5 5 6 7 7 8 9 9 10 10 11 12 12 13 13 13 14 13 13 14 14 14 14
16 16 16 15 15 14 14 13 12 11 10 10 9 10 9 9 9 7 7 6 6 6 5 5 5 5 6 6 7 8 8 8 9 9 10 11 11 12 13 13 14 14 14 14 14 14 14 14 15
16 15 15 15 15 15 14 13 13 12 11 10 9 10 10 10 9 8 8 7 7 6 6 6 6 6 7 7 8 8 9 9 9 10 11 11 12 13 13 14 14 14 14 14 14 14 15 15 15
15 15 15 15 15 14 13 13 13 13 12 11 10 10 10 10 9 8 8 8 7 7 7 7 7 7 8 8 8 9 9 9 9 10 11 12 13 13 14 14 15 15 15 15 15 15 15 15 15
14 13 14 13 13 13 12 12 13 13 13 12 11 11 11 10 10 9 9 8 8 8 8 8 8 8 8 8 8 9 9 10 10 11 12 12 13 14 14 15 15 15 15 15 15 15 15 15 15
12 12 12 11 11 12 12 12 13 13 13 12 12 11 12 11 10 9 9 9 9 9 9 9 9 9 8 8 8 9 9 10 10 11 12 13 14 15 15 15 15 15 15 15 15 15 15 15 15
10 10 10 10 10 10 11 12 12 12 12 12 12 12 12 11 10 10 9 9 10 9 9 9 9 9 9 8 8 9 10 10 11 12 13 14 14 15 15 15 15 15 15 15 15 15 15 15 16
9 9 9 9 9 9 10 10 10 11 11 11 11 11 11 11 10 10 9 9 10 10 10 10 10 9 9 9 9 9 10 10 11 12 13 14 15 15 15 16 16 16 16 16 15 15 15 16 16
9 9 8 8 8 8 9 8 9 10 10 11 11 12 12 12 11 10 10 9 10 10 10 10 10 10 9 9 9 10 10 10 11 12 13 14 15 15 16 16 16 16 16 16 15 15 15 15 15
8 8 7 7 7 8 8 8 8 9 9 10 11 11 11 11 10 10 9 10 9 10 10 11 10 10 9 9 10 10 11 10 11 12 13 14 15 16 16 16 16 17 17 16 15 15 14 14 14
8 8 7 6 7 7 7 7 7 7 8 9 9 10 10 10 10 10 10 10 10 10 10 10 10 10 9 10 10 10 10 11 12 13 14 14 15 16 16 16 17 17 16 16 15 14 14 13 13
8 7 7 7 7 6 6 5 5 6 6 7 8 8 9 9 10 10 9 10 10 10 10 10 10 10 10 10 10 10 11 11 12 13 14 15 15 16 17 17 17 16 16 15 14 13 13 12 12
7 8 8 8 7 6 5 5 4 4 5 5 6 7 8 8 8 9 9 9 9 10 10 10 10 10 10 10 10 11 11 12 12 13 14 15 15 16 16 16 16 16 16 15 14 13 12 12 12
8 8 7 7 7 6 6 5 4 4 4 4 5 6 6 6 7 8 8 9 9 9 10 10 10 10 10 10 11 11 11 12 13 13 14 15 15 16 16 16 16 15 15 14 13 12 12 12 11
7 8 7 7 7 6 5 5 5 5 5 4 4 5 5 5 6 7 7 8 9 9 10 10 10 11 10 10 11 11 11 12 13 14 14 15 15 16 15 16 15 15 15 14 13 12 12 11 10
7 7 8 8 7 6 5 5 5 4 4 4 4 4 5 5 5 6 7 7 8 9 9 9 10 11 11 11 11 11 12 13 13 14 14 15 15 15 15 15 15 15 14 14 14 13 13 11 10
6 6 7 7 6 5 4 4 4 4 3 3 3 4 4 5 5 6 7 7 8 9 9 10 10 11 11 12 11 11 12 13 13 14 14 15 15 15 15 15 15 15 14 14 14 13 13 11 10
6 7 7 6 6 5 4 3 3 3 3 3 3 4 4 5 5 6 6 7 8 9 9 10 11 11 12 12 12 12 12 13 13 13 14 14 14 14 14 14 15 14 14 13 13 13 13 11 10
6 6 5 5 5 5 4 4 3 3 3 3 4 4 5 5 7 7 7 8 8 9 10 10 11 11 11 12 13 13 13 13 13 13 14 14 14 14 14 14 14 14 14 14 13 13 12 12 11
4 5 4 4 4 5 5 4 4 4 4 4 5 5 6 7 7 8 8 8 9 9 10 10 11 11 12 12 13 13 14 14 14 13 13 13 14 14 14 14 13 13 13 13 13 13 13 12 11

GEFSSGP_500_meanwind_150.txt.gz
Wind_Speed
8 8 7 6 6 5 4 3 3 3 2 2 3 4 4 5 5 5 5 4 4 4 3 3 3 3 3 2 3 3 4 4 4 4 5 5 6 6 7 8 8 9 10 10 10 11 11 10 10
9 8 8 7 7 6 5 4 3 3 3 3 4 4 4 4 5 5 4 4 4 3 3 2 2 3 3 3 3 3 4 4 4 4 5 6 6 7 8 9 9 9 10 11 11 11 11 11 11
10 9 9 9 9 8 6 6 4 4 4 4 4 4 4 4 5 4 4 4 3 3 3 2 3 3 3 3 3 3 3 4 4 5 6 7 7 8 8 9 10 10 11 11 11 11 11 11 11
11 10 10 9 9 9 8 7 5 4 5 5 5 4 4 4 4 4 4 4 3 3 3 3 2 2 2 3 3 3 3 4 5 6 7 7 8 9 9 9 10 11 11 11 11 12 12 11 11
13 12 11 10 11 10 9 8 6 5 6 6 5 4 4 4 4 4 5 5 4 3 3 3 2 2 2 2 2 3 4 5 5 6 7 8 9 9 10 10 10 11 11 11 11 11 12 12 12
14 13 12 11 11 10 9 10 7 6 6 6 5 4 4 4 4 5 4 4 4 3 3 2 2 1 1 1 2 3 4 5 6 6 7 8 9 9 10 10 11 11 11 11 11 11 11 12 12
14 13 13 12 12 11 11 10 9 8 7 6 6 6 5 5 5 5 5 4 3 3 3 2 2 1 2 2 4 4 5 5 6 7 7 8 9 9 10 10 11 11 12 12 12 12 12 12 12
14 14 13 14 14 11 12 11 10 9 8 7 7 6 6 5 4 4 4 4 3 3 2 2 2 2 3 4 4 5 5 6 6 7 8 9 9 10 10 11 12 12 12 12 12 12 12 13 13
15 14 13 14 13 12 12 12 10 10 9 8 8 7 7 5 4 4 4 4 3 2 2 2 2 2 3 4 5 5 6 6 7 8 9 10 10 10 11 11 12 12 12 12 13 13 13 13 13
15 14 14 13 13 12 12 11 10 10 10 9 9 8 7 6 5 5 4 4 4 3 2 3 3 3 4 5 5 5 6 7 8 9 9 10 10 11 11 12 12 13 13 13 13 13 13 13 13
15 14 14 13 13 12 12 11 11 11 11 10 9 9 8 7 6 6 5 5 4 4 3 3 3 4 5 5 5 6 7 8 9 9 10 10 11 12 12 13 13 13 13 13 13 13 13 13 13
15 14 13 13 13 13 12 12 12 12 12 10 10 9 8 7 7 7 6 6 6 5 4 4 4 5 5 6 6 7 8 9 9 10 11 11 12 12 13 13 14 14 14 14 14 13 13 13 13
14 14 13 14 13 12 12 12 12 12 12 11 11 9 8 8 8 7 7 7 7 6 5 5 5 5 6 6 7 7 9 9 10 10 11 12 13 13 13 14 15 15 15 15 14 14 13 13 13
13 13 13 12 12 12 12 12 12 11 11 11 10 10 9 8 8 7 7 8 7 7 6 6 6 6 6 7 8 8 9 10 11 11 12 12 13 13 14 15 15 15 15 15 15 14 14 14 13
11 12 11 11 11 12 12 12 12 11 10 10 10 10 10 9 8 8 7 7 7 6 6 6 6 7 7 8 8 9 9 10 11 12 12 13 13 14 14 15 15 15 16 16 15 15 14 14 14
10 10 9 9 10 11 11 11 12 11 10 10 10 9 10 9 8 8 8 7 7 7 6 7 7 7 8 8 9 10 10 11 12 12 13 13 14 14 15 15 15 16 16 16 16 16 15 14 14
9 9 8 9 10 10 11 10 11 11 10 10 10 10 10 10 10 9 8 8 7 7 6 7 7 8 8 9 10 10 10 11 12 13 13 14 14 15 15 16 16 16 16 16 16 16 15 15 14
8 8 7 9 9 9 9 9 9 9 10 11 11 10 9 10 10 10 9 9 8 7 7 8 8 9 9 10 10 11 11 12 12 13 14 14 15 16 16 16 16 16 16 16 16 16 15 15 14
8 8 8 8 8 8 8 8 7 7 9 9 9 10 9 9 10 10 9 8 8 8 8 8 8 9 9 10 10 11 11 12 13 13 14 15 16 16 17 17 17 17 17 16 16 16 15 14 14
7 8 7 6 7 6 6 6 6 7 7 8 8 8 8 9 9 8 8 8 7 7 8 8 8 9 10 10 11 11 12 13 13 13 14 15 16 17 17 17 17 17 17 16 16 16 15 14 13
6 6 6 7 6 5 5 5 4 6 7 7 8 8 8 8 8 7 7 7 7 7 8 8 8 9 10 10 10 11 12 13 14 14 15 16 16 17 18 18 17 17 17 16 16 15 15 13 12
7 6 6 7 6 4 4 4 4 5 5 6 7 8 8 7 7 6 6 7 7 7 8 8 9 10 10 10 11 12 12 13 13 14 15 16 17 17 18 18 17 17 17 16 16 15 14 13 12
6 7 7 8 7 4 4 4 4 4 5 5 6 6 6 6 7 6 6 6 7 7 7 8 9 9 10 10 11 12 13 13 14 14 15 16 17 17 17 17 17 17 16 16 15 15 14 12 12
7 8 8 7 6 4 4 4 4 4 5 5 5 5 5 6 6 6 6 7 6 6 7 8 9 9 10 11 11 12 13 14 14 15 15 16 17 17 17 17 16 16 16 15 15 15 14 13 12
9 9 8 6 4 4 4 5 4 4 5 5 5 6 5 6 6 6 6 6 6 6 7 8 9 10 10 11 11 12 13 14 15 15 15 16 16 16 16 16 16 16 15 15 15 15 14 13 12
8 7 7 6 5 3 3 4 3 4 4 5 5 6 6 6 6 5 5 6 6 7 8 8 9 10 11 11 12 13 13 14 14 14 15 15 16 16 16 16 16 16 15 15 14 14 14 13 13
7 6 7 7 6 4 3 3 3 2 3 4 4 5 5 5 5 5 5 6 6 7 8 8 9 10 11 11 12 13 13 14 14 14 15 15 15 15 16 16 16 16 15 14 14 14 14 13 12
7 7 6 7 7 5 4 2 3 3 3 4 4 5 5 5 5 5 4 5 6 7 7 8 9 10 11 12 12 13 13 14 14 15 15 15 15 15 15 16 16 15 15 14 14 13 13 13 12
7 6 5 4 5 6 6 4 5 5 5 5 5 4 4 4 5 6 6 6 6 7 8 9 10 11 12 12 13 13 14 14 14 14 15 15 15 15 15 15 16 16 15 13 13 13 13 13 12
8 8 7 5 5 6 7 5 6 6 6 6 5 5 5 6 6 7 7 8 7 8 9 10 11 12 12 13 13 14 14 14 15 15 15 15 14 15 15 15 15 15 15 14 14 13 13 13 13

GEFSSGP_500_meanwind_156.txt.gz
Wind_Speed
8 7 6 6 6 6 5 4 3 2 2 2 3 3 3 3 3 3 3 3 3 3 3 2 2 2 2 1 1 1 1 1 1 2 2 3 4 5 5 6 6 7 7 7 8 8 9 9 9
9 8 7 7 7 7 6 4 3 4 3 3 3 3 3 3 2 3 3 3 4 3 3 2 1 1 2 1 1 1 1 2 2 3 3 4 4 5 5 6 6 7 7 8 8 9 9 9 9
10 9 9 9 9 8 7 5 4 3 4 4 3 3 3 3 3 3 3 4 4 4 3 2 1 1 1 1 1 1 1 2 2 3 4 4 5 5 6 6 7 7 8 8 9 9 10 10 10
11 11 10 10 10 9 8 6 4 3 3 2 3 4 4 3 3 3 4 4 3 3 3 2 1 1 1 1 1 1 1 2 2 3 3 4 5 5 6 6 7 7 8 8 9 10 10 10 10
12 11 11 11 10 9 8 7 5 4 3 3 4 4 4 4 4 3 4 4 4 4 3 2 2 2 1 1 1 0 1 2 2 3 3 4 4 5 6 6 7 8 8 9 9 10 10 10 11
12 12 12 12 11 10 9 8 6 6 5 4 4 4 3 4 4 4 4 4 4 4 4 3 2 2 2 1 0 0 1 2 2 3 4 4 5 5 6 7 8 8 8 9 9 9 10 10 11
13 12 12 12 12 10 10 9 8 6 5 5 4 3 3 4 3 4 4 4 5 4 4 4 3 2 1 0 1 1 2 2 3 3 4 5 5 6 7 7 8 9 9 9 10 10 10 11 11
13 12 12 12 12 11 10 8 7 7 6 6 5 4 3 3 4 5 5 5 5 4 3 3 3 2 1 0 1 1 2 3 3 4 4 5 6 6 7 8 9 9 10 10 10 11 11 11 11
13 13 12 12 12 12 10 9 7 8 7 6 6 5 4 4 4 4 5 5 5 4 4 3 2 2 1 1 1 2 2 3 3 4 5 6 6 7 8 9 9 10 10 10 11 11 11 11 12
13 13 13 13 13 12 11 9 9 9 8 7 7 6 5 5 4 4 5 6 5 5 4 3 2 2 1 1 2 3 3 3 4 5 6 6 7 8 8 9 9 10 11 11 11 12 12 12 12
13 13 13 12 11 10 9 8 8 9 9 7 7 6 5 5 5 5 4 5 5 5 4 3 3 2 2 2 2 2 3 4 5 5 6 7 7 8 8 9 10 10 11 12 12 12 12 12 12
12 12 13 11 9 9 7 7 7 7 8 8 6 6 5 5 6 6 5 4 5 4 4 3 3 3 3 2 2 3 3 4 5 5 6 7 8 9 9 10 10 11 12 12 12 12 12 12 12
11 12 12 11 9 9 8 8 7 7 7 7 7 6 6 5 6 5 6 5 4 4 4 3 3 3 3 2 3 3 3 4 5 6 7 8 9 9 10 10 11 12 12 12 12 12 12 12 12
11 11 10 10 9 8 8 7 7 7 8 8 7 7 7 6 6 6 6 6 5 4 4 4 3 3 3 3 3 3 4 5 6 7 8 9 9 10 10 11 12 12 13 13 13 13 13 13 13
11 11 10 10 9 8 7 7 7 8 8 8 8 7 7 7 6 6 6 6 5 5 4 4 4 3 3 3 3 3 5 6 6 7 9 10 10 10 11 12 13 13 13 14 14 13 13 13 13
10 11 11 10 9 8 8 8 8 8 8 8 8 7 7 7 6 6 6 6 5 5 4 4 4 3 3 3 3 4 5 6 7 8 9 10 11 11 12 13 13 14 14 14 14 14 13 13 13
10 9 10 9 8 8 8 8 8 9 9 8 7 6 6 6 6 6 6 6 5 5 5 4 3 3 3 3 4 5 6 7 8 9 10 10 11 12 13 14 14 14 15 15 15 14 14 13 13
8 9 9 9 8 8 8 8 8 9 9 9 8 6 6 5 5 6 6 6 5 5 5 5 4 3 4 4 5 6 7 8 9 10 10 11 11 13 14 14 14 15 15 15 15 14 14 13 13
8 7 8 8 8 9 8 8 9 9 9 9 8 7 6 5 5 6 6 5 5 5 4 4 4 4 4 5 6 7 8 8 9 10 10 11 12 13 14 14 15 15 15 15 15 15 14 13 13
8 8 9 9 9 9 9 9 9 10 9 9 8 7 6 5 5 5 5 5 5 4 4 4 4 4 5 5 6 7 7 8 9 10 11 12 13 14 14 15 15 15 15 15 15 14 13 13 12
8 8 8 9 10 9 9 8 9 9 9 9 8 7 7 6 5 5 6 5 4 4 4 4 4 5 5 6 7 7 8 9 10 11 11 12 13 14 15 15 15 15 15 15 14 14 13 12 11
8 8 8 8 8 9 8 9 9 9 8 8 7 7 6 6 5 6 6 5 5 4 4 5 5 5 6 6 7 7 8 9 10 11 12 13 14 15 15 15 15 15 15 15 14 13 12 11 10
7 8 8 7 7 8 9 9 10 9 8 7 6 6 6 6 6 6 6 5 4 5 5 4 5 6 6 7 7 8 9 10 11 12 12 13 14 15 15 15 15 14 14 14 14 13 12 12 10
7 8 7 7 8 7 8 8 10 9 7 7 7 6 6 6 6 6 6 5 4 4 5 5 5 5 5 6 7 8 9 10 11 11 12 13 14 14 15 15 15 14 14 14 13 13 12 11 10
7 8 7 7 8 8 8 7 8 7 7 6 6 6 5 5 6 7 6 6 5 4 5 5 5 5 6 7 7 8 9 10 11 11 12 13 13 14 14 14 14 14 14 13 13 13 12 11 10
6 7 7 6 7 7 8 8 7 6 6 6 6 6 5 5 6 6 6 5 5 5 5 5 5 6 7 7 8 8 9 9 10 10 11 12 13 13 13 14 14 14 14 13 13 12 12 11 10
7 7 7 6 6 6 7 7 6 5 5 5 6 7 6 5 6 6 6 6 5 5 5 5 5 6 7 7 7 8 9 9 9 10 11 12 12 13 13 14 14 14 13 13 12 12 12 11 10
7 7 7 6 6 6 6 6 5 4 3 4 6 7 6 6 6 6 6 6 5 5 5 5 6 7 7 8 8 8 9 9 10 10 12 12 13 13 14 14 14 14 13 13 12 12 12 11 10
7 7 7 7 6 6 6 6 5 4 3 4 5 5 6 6 5 5 6 5 5 5 5 6 7 7 8 9 8 9 9 10 10 11 11 12 13 14 14 14 14 14 13 12 12 12 12 11 10
7 6 6 6 6 6 5 5 4 3 3 4 4 4 4 5 5 5 5 5 5 6 6 7 7 8 9 9 9 9 10 11 11 11 12 12 13 14 14 14 14 14 13 12 12 12 12 11 10

GEFSSGP_500_meanwind_162.txt.gz
Wind_Speed
9 9 8 7 7 6 5 4 3 2 2 4 5 5 5 5 5 5 5 6 5 5 5 4 3 3 3 3 2 2 1 1 1 1 2 3 3 4 4 5 6 6 6 6 6 7 7 6 6
10 9 8 8 8 7 6 5 4 3 3 4 5 5 5 5 5 5 5 6 5 6 5 4 3 3 3 2 2 1 0 1 1 2 3 3 3 4 4 5 6 7 7 7 7 7 7 7 7
10 9 9 9 8 8 7 6 5 4 4 4 5 5 5 5 6 5 5 5 6 6 5 5 4 3 2 2 1 0 1 2 1 2 3 3 4 5 5 6 6 7 7 7 7 7 8 8 7
10 9 9 9 9 9 8 7 5 5 5 5 5 4 4 6 6 6 6 6 6 6 6 5 4 3 2 2 1 1 1 2 2 2 3 4 4 5 6 6 7 7 7 7 7 8 8 8 8
11 10 9 10 10 9 9 7 6 5 5 5 4 4 5 6 6 6 6 6 6 6 6 6 5 4 3 2 1 0 1 2 2 3 3 4 5 6 6 7 7 7 8 8 8 8 8 8 8
12 10 9 9 9 9 9 8 6 5 5 5 4 5 6 6 6 6 6 7 6 6 6 6 5 4 3 2 1 0 1 2 2 3 4 4 4 5 6 7 8 8 8 8 8 8 9 9 9
11 10 10 9 9 9 9 9 8 6 5 5 6 6 6 6 6 6 6 7 7 6 6 5 5 4 2 1 0 1 1 2 2 3 4 4 5 5 6 7 8 8 9 9 9 9 9 10 10
11 10 10 10 10 9 10 9 8 8 7 7 7 7 7 6 6 6 6 7 7 7 6 5 4 3 2 1 1 1 1 2 3 4 4 5 5 6 7 7 8 9 9 9 9 10 10 10 10
11 10 10 10 10 10 9 9 8 9 9 8 8 8 7 6 6 6 7 7 7 7 6 5 4 3 2 1 1 1 2 3 3 4 5 5 6 7 7 8 8 9 9 10 10 10 10 10 10
11 10 9 9 10 9 9 8 9 9 9 9 9 8 8 8 8 8 8 8 7 6 5 4 3 3 2 2 2 2 3 4 4 5 5 6 7 7 8 8 9 10 10 11 11 11 11 11 11
10 9 9 9 10 9 8 8 9 10 10 9 10 9 8 9 8 8 8 7 7 6 5 4 3 2 2 2 2 3 4 4 5 5 6 7 7 8 9 9 10 10 11 11 11 11 11 11 11
10 10 9 9 9 9 8 8 9 11 10 9 9 10 10 10 9 9 8 8 7 6 6 4 3 2 2 2 3 4 4 5 5 6 7 8 8 9 10 10 10 11 11 12 12 12 12 12 12
11 10 9 9 9 9 8 7 9 11 11 10 10 10 10 10 10 9 9 8 7 7 6 4 3 3 3 3 4 4 4 5 6 6 7 8 9 9 10 11 11 12 12 12 13 13 13 12 12
11 10 9 9 9 9 9 7 9 10 11 10 10 10 10 10 10 9 9 8 8 7 6 5 4 4 4 4 4 4 5 5 6 7 8 9 9 10 11 11 12 12 12 13 13 13 13 13 12
10 9 9 8 8 9 9 8 9 10 9 9 10 10 10 10 10 9 9 8 8 7 6 6 6 5 5 4 4 5 5 6 7 7 8 10 10 11 11 12 12 13 13 13 14 14 13 13 12
9 9 8 8 8 9 9 9 10 9 9 10 10 10 10 11 10 9 9 8 7 7 7 6 6 6 5 5 5 5 6 7 8 8 9 10 11 11 12 12 13 14 14 14 14 13 13 13 12
9 9 8 8 9 9 9 9 9 9 10 10 10 10 10 11 10 9 8 8 8 7 6 7 6 6 6 5 5 5 6 7 7 8 9 10 11 12 12 13 14 14 14 14 14 14 13 13 12
9 10 9 9 9 9 9 10 9 10 11 11 10 10 10 10 9 9 9 7 7 6 6 6 5 5 5 5 5 5 6 7 8 8 10 11 11 12 13 14 14 14 14 14 14 14 13 13 12
9 10 9 8 9 9 9 9 9 10 10 11 10 10 10 10 10 9 9 8 7 6 5 5 5 5 5 4 4 5 6 7 8 9 10 11 11 12 13 14 14 14 15 15 14 14 13 13 12
9 10 9 9 9 9 10 9 10 10 10 10 10 10 10 10 10 9 9 8 7 7 6 5 5 5 4 4 4 5 6 7 8 9 10 11 12 12 13 14 14 15 15 15 15 14 13 12 11
9 9 9 9 8 9 9 10 10 11 10 10 10 10 11 10 10 10 10 8 8 7 7 5 4 4 4 5 5 6 7 8 9 10 10 11 11 12 13 14 14 15 15 15 14 14 12 11 11
8 8 9 9 9 9 10 10 10 11 11 10 11 11 11 11 10 10 9 8 8 7 6 5 5 5 5 5 5 6 7 8 9 10 11 11 12 12 13 14 14 15 15 15 14 13 12 11 10
8 9 9 9 9 9 10 10 10 11 10 10 11 11 11 11 11 10 9 9 7 6 5 5 5 5 5 5 6 6 7 8 9 10 11 11 12 13 14 14 15 15 15 14 13 12 12 11 10
7 8 8 8 9 9 9 9 10 10 10 11 11 10 10 10 10 10 9 8 7 6 5 4 4 4 4 5 5 6 7 8 9 10 10 11 12 13 14 15 15 15 15 14 13 12 12 11 10
8 8 9 9 8 9 9 9 9 10 10 11 11 10 10 10 10 10 8 8 7 6 5 4 4 4 4 5 6 7 7 8 9 9 10 11 11 13 14 14 14 14 14 14 13 12 12 11 11
7 8 8 7 7 8 9 9 9 9 10 10 10 10 10 10 10 9 8 8 7 6 4 4 4 4 5 5 6 7 8 8 9 9 10 11 12 13 13 14 14 14 14 14 13 12 12 11 11
8 7 7 6 6 8 9 9 9 9 10 10 10 10 10 10 9 9 8 8 7 6 5 4 4 4 5 6 6 7 7 8 9 9 9 10 11 13 13 14 14 14 14 14 13 13 12 12 11
8 8 7 6 5 7 7 8 8 8 9 10 10 10 10 10 9 8 8 7 6 6 6 5 5 5 5 6 6 7 8 8 9 9 10 10 12 12 13 14 14 15 15 14 14 14 13 12 11
8 8 8 7 5 5 6 7 8 8 8 8 9 10 10 9 9 9 8 8 7 7 6 6 6 6 6 6 7 8 9 9 10 10 11 11 12 12 13 15 15 15 15 15 15 14 14 13 12
8 8 7 6 5 5 6 6 8 8 8 8 8 9 9 9 9 8 8 8 8 7 7 6 6 7 7 7 8 9 9 10 10 11 11 12 13 13 14 15 16 16 16 16 16 15 15 14 14